GFSWCAN_sfc_30mbdewp_213.txt.gz
Dewpoint
37 37 37 37 37 37 38 39 39 39 39 41 41 40 39 39 39 35 35 39 36 30 32 34 34 30 31 35 31 32 32 31 31 32 32 28 27 28 24 25 25 25 25 25 28 24 21 13 11 13 18 19 16 16
37 37 38 37 37 37 37 39 39 39 37 38 41 40 41 40 41 40 32 37 39 35 32 35 35 36 34 33 37 34 33 32 35 31 33 30 27 28 26 22 25 23 24 24 25 23 23 14 12 19 18 16 14 16
37 37 38 38 38 38 37 38 39 37 38 39 39 41 40 41 40 38 37 39 39 33 34 33 32 33 34 35 41 34 36 36 37 37 34 29 25 26 24 24 24 25 25 25 23 21 17 15 17 17 18 18 16 16
37 37 37 38 38 38 38 38 38 37 37 37 40 41 41 39 37 38 39 40 37 36 29 29 36 32 35 37 41 40 37 35 34 33 31 28 25 27 24 23 23 24 24 25 24 25 21 23 21 18 17 17 16 16
37 38 38 38 38 38 38 38 38 38 35 38 38 39 41 40 42 39 37 38 39 35 30 28 34 34 34 38 37 38 36 34 32 31 30 27 25 24 24 23 23 25 24 23 23 19 16 19 20 20 19 17 13 11
35 36 36 36 37 38 38 38 38 38 36 35 38 38 38 38 38 37 31 35 38 38 32 25 32 31 32 36 37 36 36 34 33 31 29 28 27 26 25 21 21 24 25 24 20 16 15 17 17 17 17 15 12 13
35 35 35 35 36 36 37 38 38 38 36 35 35 37 38 37 38 32 31 35 37 37 32 27 26 31 33 33 33 32 30 29 26 26 24 21 20 22 18 13 15 17 20 16 15 16 15 15 16 15 12 13 19 18
35 34 35 37 37 37 37 38 38 38 36 35 34 35 35 35 34 34 36 35 34 32 30 24 23 28 32 28 27 30 28 24 19 19 18 17 16 12 6 6 13 14 13 14 14 12 16 13 15 16 19 20 24 25
35 36 36 37 37 37 37 37 38 37 35 34 32 34 32 31 30 29 34 34 35 31 25 26 23 20 27 26 26 25 20 20 20 18 13 12 8 6 3 4 7 10 12 11 11 11 13 17 20 22 23 25 24 24
35 35 36 36 36 37 37 37 37 36 34 32 31 32 31 26 32 30 30 32 32 26 27 24 21 22 25 20 23 23 22 11 14 16 15 9 8 12 8 4 7 8 8 9 11 12 18 21 23 24 24 25 26 26
34 35 35 35 35 36 37 37 36 34 31 30 30 28 26 28 28 28 29 23 20 20 23 24 21 18 25 16 20 19 16 13 8 8 9 7 8 18 19 15 18 19 18 18 21 22 24 25 25 26 27 27 26 25
33 34 33 34 34 35 36 35 34 29 27 30 29 30 25 25 25 23 21 20 15 14 19 21 21 21 25 23 21 21 16 17 10 13 13 6 16 24 26 23 22 21 23 23 25 26 28 28 28 27 26 26 26 27
31 32 32 33 33 34 34 35 34 33 31 31 28 23 22 23 20 14 16 14 18 19 24 22 22 22 24 23 21 21 18 18 16 17 10 13 24 28 27 25 24 24 25 26 26 27 27 27 27 27 26 26 26 25
31 30 31 32 31 31 33 33 33 30 27 25 20 19 21 19 18 22 20 20 20 18 17 19 21 21 22 20 19 17 17 19 14 11 9 24 27 28 28 27 26 26 27 27 27 27 27 26 25 27 28 29 28 26
31 30 32 30 30 30 32 33 33 28 26 24 21 18 19 24 25 26 26 20 19 20 25 25 23 22 21 21 17 17 17 12 10 9 20 26 29 29 29 28 28 29 29 29 29 29 28 28 27 27 27 28 26 26
31 30 30 29 29 30 32 32 28 26 26 21 22 21 23 24 27 27 27 26 25 25 26 25 22 19 18 17 15 13 10 10 13 23 28 29 29 29 28 28 28 29 27 28 28 28 28 27 26 26 27 27 25 26
30 24 27 29 30 30 32 29 26 26 19 19 22 26 29 25 26 29 27 27 28 26 22 20 18 15 18 14 11 12 15 22 25 29 28 27 27 29 29 28 29 28 29 28 28 27 27 27 27 26 25 26 26 26
24 24 28 29 30 27 29 27 25 19 15 21 25 25 26 28 26 27 28 30 26 24 21 21 20 16 16 10 14 22 27 29 28 29 29 28 28 29 28 27 27 27 27 28 27 27 27 26 25 25 25 25 26 26
27 27 27 29 30 28 25 24 25 17 19 21 22 24 24 26 28 28 29 30 31 28 25 21 20 14 15 22 25 27 28 28 30 30 31 31 29 29 30 30 29 27 28 27 27 26 26 26 24 24 24 24 24 25
30 26 27 29 30 25 25 24 25 19 17 20 21 22 23 27 28 30 28 29 26 25 22 20 19 28 28 29 29 29 30 30 29 27 27 29 29 29 29 27 27 27 27 27 27 26 25 24 24 24 25 24 25 24
24 23 25 27 23 22 21 21 22 21 21 20 22 22 24 23 23 27 27 28 24 20 18 26 26 26 27 30 30 30 30 30 29 28 27 27 29 27 27 28 28 26 26 26 24 25 25 24 25 26 27 27 27 25
24 27 23 24 22 22 20 18 16 18 17 16 14 16 17 20 21 21 26 25 22 19 20 20 21 21 23 25 28 29 30 30 29 30 30 29 27 27 27 27 26 26 26 26 26 25 25 25 26 26 26 26 26 25
29 24 20 19 18 17 16 17 17 14 14 13 16 14 15 18 17 20 20 18 18 18 17 17 18 20 21 23 25 27 28 29 28 28 29 28 28 28 28 28 27 27 26 27 26 26 25 25 25 25 25 25 25 25
27 21 19 16 15 14 16 15 14 13 15 14 14 11 16 19 21 21 13 13 15 15 15 16 17 20 27 25 23 22 22 25 30 32 29 27 26 27 26 27 28 29 27 27 25 25 24 24 24 23 24 23 24 24
18 16 18 14 15 13 12 12 12 9 9 8 9 12 15 16 13 11 11 12 12 13 14 15 15 15 15 17 17 19 20 22 24 29 30 30 27 27 26 27 27 27 27 26 25 23 23 23 23 23 22 22 22 23
11 15 13 12 13 10 9 6 7 7 5 6 10 11 13 12 8 8 8 10 12 13 13 13 13 13 13 14 14 14 17 20 25 21 19 22 26 25 23 21 21 21 23 26 24 23 21 21 21 21 21 21 21 23
10 12 11 8 8 8 9 8 5 3 3 2 5 5 7 4 6 8 11 11 12 13 12 13 12 12 12 12 14 16 18 17 17 16 17 17 18 19 23 24 21 18 19 21 22 23 23 21 21 20 20 21 21 21
12 12 10 10 7 4 4 3 3 2 3 3 3 4 4 5 6 9 11 12 13 12 11 11 11 11 12 12 14 15 16 18 18 18 17 16 16 16 16 15 15 15 16 16 17 19 19 19 19 19 19 19 20 20
11 10 7 5 7 5 4 3 4 5 5 3 3 4 8 8 11 10 11 11 11 11 10 10 11 11 11 11 13 13 13 14 15 14 13 13 13 12 15 16 15 16 16 17 15 15 15 15 16 17 18 18 18 19
8 8 5 5 4 3 7 9 11 11 5 6 5 3 4 9 11 11 10 10 10 10 10 8 8 7 7 7 7 8 10 10 10 10 10 9 10 13 14 14 14 14 15 14 14 14 13 14 14 16 16 16 17 17
8 8 6 4 4 8 11 10 10 8 8 6 9 6 5 8 9 10 9 9 9 9 8 6 6 7 6 6 6 5 6 10 7 7 7 8 10 11 12 12 13 13 13 13 12 11 11 10 11 13 13 13 14 14
8 6 4 2 5 9 9 7 5 4 6 6 6 6 7 6 3 9 9 10 9 8 7 6 5 6 7 7 6 7 6 6 7 7 7 7 8 9 9 9 10 9 9 9 8 8 8 8 9 10 11 11 12 13
6 6 6 5 5 4 5 4 1 2 3 3 4 5 5 4 2 10 10 11 10 8 7 7 7 7 7 6 5 6 5 6 6 7 6 5 5 6 7 8 8 8 7 7 7 7 7 7 7 8 9 9 10 10

GFSWCAN_sfc_30mbdewp_216.txt.gz
Dewpoint
37 37 38 38 38 38 38 38 39 38 37 38 41 40 40 40 41 39 37 35 35 33 33 36 35 33 33 31 28 32 31 32 31 29 31 31 30 30 29 30 30 29 28 28 30 27 24 19 20 21 23 19 23 26
37 38 38 38 38 38 38 38 39 39 36 38 39 41 40 40 40 39 36 39 39 36 34 36 35 35 32 32 32 33 32 33 33 31 31 31 30 32 28 27 31 27 28 27 28 27 26 18 20 25 23 20 21 22
36 37 38 38 37 37 38 38 39 39 37 36 38 41 41 40 40 39 35 37 38 34 33 34 34 36 37 36 37 29 30 35 37 39 36 34 31 33 30 26 28 28 29 28 27 26 20 18 21 20 20 19 22 20
36 36 36 37 37 37 37 38 39 38 38 36 39 41 41 40 39 38 37 37 37 35 29 29 35 34 36 36 36 36 34 34 40 39 33 32 31 34 31 28 28 28 28 28 26 24 19 18 21 21 20 20 21 20
36 37 37 36 37 37 38 38 38 38 38 36 38 39 40 39 39 38 40 40 39 35 29 30 33 33 35 35 35 36 36 34 36 34 33 30 32 31 28 29 29 28 27 27 26 24 19 20 21 22 20 18 17 14
36 36 36 36 37 37 38 38 38 38 38 36 36 39 38 40 39 37 32 36 39 38 32 26 31 32 33 32 35 38 39 38 35 32 31 32 33 32 28 26 27 26 29 28 27 24 24 26 25 20 19 18 14 12
35 35 35 36 37 37 37 38 38 38 38 37 39 38 39 38 37 32 32 35 40 40 31 26 27 32 34 33 33 32 34 32 32 31 31 31 30 31 30 26 26 26 27 27 27 26 24 26 23 22 21 17 15 13
35 35 35 36 36 36 37 38 38 37 38 35 37 38 39 38 38 33 36 37 37 36 34 26 24 29 32 29 29 34 31 32 32 31 32 30 30 26 22 20 25 24 26 23 22 20 25 25 22 19 17 13 13 15
34 34 35 35 36 35 36 37 37 37 37 36 34 35 35 32 30 33 35 35 38 34 28 27 25 22 28 29 30 29 27 25 29 29 27 22 18 21 19 20 19 23 17 18 18 17 19 18 16 12 12 15 21 22
32 34 34 35 35 35 35 37 37 36 34 35 32 33 32 26 31 31 31 33 32 31 30 25 23 23 30 24 26 25 27 25 22 23 18 16 8 8 15 17 19 16 16 14 17 16 15 15 16 18 19 23 24 23
29 31 31 32 33 33 33 35 35 35 30 30 30 26 26 31 27 29 28 26 22 23 25 26 22 21 23 22 24 27 23 20 17 17 18 13 12 7 6 12 15 16 14 12 16 16 16 21 23 23 24 27 26 26
28 30 31 30 31 32 31 33 34 31 27 30 30 31 29 26 27 24 21 18 14 14 25 22 24 23 25 26 21 19 17 24 17 16 15 15 18 17 14 16 16 13 12 12 14 20 23 25 26 28 27 27 28 29
28 28 31 30 30 30 30 32 33 35 34 32 33 25 24 24 20 19 15 11 16 21 25 24 26 24 24 24 23 21 20 17 18 19 12 22 22 25 23 21 21 21 21 22 26 28 29 29 30 29 29 29 27 27
28 28 31 30 30 30 30 31 33 34 31 25 21 19 21 19 18 22 25 22 18 20 23 22 23 21 23 20 21 16 16 18 16 11 14 26 27 27 26 24 25 26 28 29 28 29 29 28 28 29 29 27 27 26
27 29 31 32 29 29 30 32 34 32 27 24 22 18 18 21 24 25 27 17 18 20 24 24 23 21 20 21 17 16 17 12 10 11 26 29 29 28 28 29 30 30 30 30 30 29 28 28 28 28 27 27 28 26
28 30 30 30 29 29 31 31 29 26 28 22 24 23 24 25 25 29 25 24 25 24 26 25 21 18 17 18 15 14 9 9 15 28 30 29 29 28 29 29 30 30 30 29 29 28 27 26 26 27 27 26 26 26
29 29 29 27 29 31 30 29 26 27 20 19 22 25 30 25 25 25 25 26 29 27 23 20 18 15 17 14 10 18 21 25 30 31 30 29 29 29 29 31 30 30 29 29 28 27 27 27 27 26 24 27 27 26
30 27 27 26 30 27 28 25 25 19 16 21 26 25 28 29 28 31 29 31 29 26 24 21 20 14 15 9 18 26 29 30 30 29 29 29 30 30 29 28 28 28 30 27 26 26 26 25 25 25 26 26 25 26
29 29 28 27 29 30 24 24 26 18 18 21 25 25 26 28 29 30 30 31 31 29 26 20 17 15 20 26 27 27 29 30 30 31 32 31 30 29 29 29 29 30 28 27 25 25 26 26 26 26 25 25 25 25
31 31 26 27 28 24 25 22 26 20 19 19 22 22 24 28 28 30 28 28 27 25 23 21 24 24 26 29 32 31 32 31 30 28 28 30 31 31 30 29 27 28 28 28 28 27 27 25 25 25 24 25 24 26
26 26 24 24 22 21 20 19 19 19 18 17 20 19 22 22 24 26 26 26 24 25 24 23 24 25 27 28 29 32 31 30 29 27 27 27 29 29 29 28 28 26 27 27 27 26 26 25 25 25 25 25 26 26
25 26 25 22 22 23 22 16 15 15 16 15 13 15 16 20 21 22 26 25 19 19 20 21 21 21 22 24 25 28 29 30 31 33 29 29 28 28 27 30 27 27 26 27 27 27 28 27 26 25 25 26 26 27
26 24 21 18 17 16 15 16 14 13 14 13 14 11 12 16 19 22 21 19 18 21 20 19 19 22 25 26 27 25 25 27 30 32 31 30 29 29 29 29 28 28 27 28 29 28 28 27 27 26 25 24 25 26
26 20 19 16 15 14 15 14 11 12 14 11 14 13 16 16 19 18 13 14 16 15 16 18 17 21 24 23 21 21 21 23 26 28 31 30 30 30 29 28 29 29 28 29 28 28 27 27 25 24 23 23 26 26
20 17 19 13 16 12 9 8 7 5 5 4 7 12 15 13 14 11 11 13 13 14 14 15 19 17 15 16 16 17 20 20 20 24 22 31 31 30 29 30 30 31 32 28 27 26 25 25 25 23 23 25 25 26
12 15 15 12 11 9 6 4 6 6 3 5 8 9 6 9 11 10 9 12 13 13 13 13 14 16 14 15 14 14 16 19 23 18 17 19 20 28 26 24 24 24 28 28 26 25 24 23 22 21 21 21 22 25
10 11 11 9 8 6 7 6 4 2 2 1 7 4 4 5 8 10 11 12 13 14 14 14 15 14 13 14 15 17 18 18 17 17 18 18 18 18 24 25 22 22 25 26 27 26 24 23 22 22 23 22 21 21
12 11 10 11 7 3 5 3 3 2 4 2 3 3 3 6 8 11 12 13 13 12 12 12 12 13 14 15 14 15 16 20 19 19 19 17 17 18 18 18 18 18 18 19 21 21 22 23 23 22 22 23 24 23
12 11 9 7 7 6 5 3 4 5 4 3 3 8 11 11 11 15 13 13 12 13 12 12 12 14 15 14 13 13 13 14 14 14 11 11 11 13 17 17 17 18 19 18 17 17 17 17 18 19 20 21 22 22
11 9 6 5 4 4 9 13 14 11 5 7 6 2 3 11 13 11 11 12 14 14 11 11 11 10 8 11 9 12 10 10 10 10 9 9 11 15 16 15 15 16 17 17 16 17 18 18 19 19 18 18 19 19
9 9 7 5 6 13 12 12 11 10 8 7 9 6 11 12 11 10 9 11 11 11 10 10 9 9 8 7 7 7 10 10 8 8 8 10 11 15 13 13 15 14 15 15 14 14 14 13 15 15 16 16 16 15
10 8 6 4 8 10 10 9 8 7 8 6 8 6 7 7 7 12 10 12 10 10 10 8 8 11 8 8 7 8 7 7 9 8 9 7 9 9 9 10 11 10 10 10 9 9 10 10 12 13 14 14 16 17
8 8 7 7 6 6 7 6 3 3 4 4 6 6 6 7 5 14 12 11 13 12 9 9 10 9 8 7 6 6 5 8 7 7 6 5 5 5 6 8 11 11 8 8 8 8 8 8 8 8 8 9 12 12

GFSWCAN_sfc_30mbdewp_219.txt.gz
Dewpoint
36 36 36 37 37 37 37 38 38 38 39 39 38 37 40 40 41 40 37 40 37 33 34 34 34 32 31 31 28 29 27 28 29 26 27 30 29 31 30 32 33 33 32 32 32 29 26 28 24 23 24 21 29 30
36 36 36 37 37 37 37 38 38 38 39 39 37 38 39 42 41 41 37 41 41 34 34 37 36 35 33 32 30 31 30 28 32 29 30 31 30 31 32 27 34 31 34 32 31 29 30 23 24 26 22 26 29 31
35 35 36 36 37 37 37 38 38 38 39 39 38 38 41 41 41 40 38 38 37 33 33 34 32 35 37 36 37 27 31 31 31 35 33 30 29 32 29 31 32 34 33 29 28 25 22 25 24 22 25 25 29 29
36 35 35 35 37 37 37 37 38 38 38 39 38 38 41 41 40 40 37 38 36 34 27 30 35 33 36 36 35 36 34 34 34 34 31 32 30 35 32 33 31 32 32 29 27 21 22 23 22 23 23 24 25 26
35 35 35 35 36 37 37 37 37 38 38 38 38 38 39 41 41 40 39 40 39 29 28 30 33 35 35 35 34 34 34 32 31 29 29 29 33 32 32 33 32 32 31 27 26 21 20 22 22 24 23 22 22 21
34 34 35 35 35 36 37 37 37 38 38 38 38 39 41 41 39 37 33 37 40 36 30 26 31 32 34 34 33 32 31 30 32 30 32 32 34 32 30 29 33 34 33 31 27 22 22 24 23 22 20 18 18 16
32 33 34 35 35 35 36 36 37 37 37 38 39 38 38 39 37 34 32 36 39 38 31 27 26 32 34 33 32 31 33 32 33 31 30 31 31 33 30 27 33 31 31 32 29 25 24 24 23 21 18 18 17 16
31 31 32 34 34 34 36 36 36 36 37 38 37 39 39 38 37 33 36 39 39 34 33 26 26 28 32 28 28 33 30 31 31 31 31 30 31 30 27 31 33 33 31 29 27 25 24 25 22 19 16 14 15 15
30 29 30 32 32 32 34 34 35 36 36 37 36 37 36 36 33 33 38 38 38 34 27 27 23 22 30 29 30 30 31 26 31 29 29 27 26 24 26 28 33 34 33 30 26 27 26 23 20 16 14 15 16 18
28 28 28 30 31 31 32 32 33 34 35 36 33 33 30 32 35 34 32 32 32 33 33 27 27 24 31 27 26 27 28 24 21 25 29 24 13 19 24 29 28 28 27 22 26 26 24 20 17 15 15 17 18 25
29 29 28 28 30 29 29 30 31 33 32 32 30 27 32 34 27 28 28 27 26 26 27 27 24 24 28 24 26 27 23 25 18 21 22 22 10 17 22 21 21 21 21 21 22 21 18 16 16 18 23 27 29 29
28 27 28 28 30 30 29 30 31 32 32 32 33 34 32 30 28 25 23 21 20 19 25 24 25 26 27 28 23 25 23 25 17 22 22 19 18 17 20 19 18 17 19 18 19 19 21 23 26 29 29 29 29 28
27 27 28 29 30 30 31 29 30 33 35 34 32 30 27 24 19 19 17 15 16 24 27 26 24 25 23 28 23 22 22 17 21 20 19 21 22 23 19 18 16 15 18 19 28 30 31 30 30 28 28 28 28 27
26 27 28 30 32 31 30 28 32 34 34 29 23 19 21 18 22 22 23 25 22 25 25 28 23 26 24 22 22 16 17 18 18 16 20 21 23 24 27 30 29 30 30 30 29 29 28 28 27 27 27 27 27 27
28 28 31 31 29 27 28 32 34 34 31 25 23 20 18 20 24 24 26 27 25 26 26 24 24 22 21 20 19 18 17 15 13 19 24 27 28 29 29 30 30 30 29 28 28 27 27 27 26 26 27 27 26 26
27 29 30 29 26 28 32 33 32 29 28 26 23 23 24 27 25 27 25 23 25 25 24 24 21 19 18 18 16 16 12 13 22 28 28 29 29 29 30 30 29 29 28 28 28 28 27 26 26 26 26 26 25 25
27 32 31 27 27 30 32 30 29 27 23 20 21 24 28 27 27 27 27 27 30 25 21 21 17 17 19 16 13 21 21 26 29 29 29 29 29 30 30 29 29 29 28 27 26 26 27 28 27 26 25 25 25 25
27 28 29 29 28 30 27 27 26 23 20 22 24 24 27 29 30 29 30 31 29 28 25 21 24 17 16 14 20 28 29 30 30 30 31 30 30 30 29 29 29 29 27 27 27 26 26 25 25 25 26 24 24 25
28 30 31 31 28 30 23 24 25 23 20 22 23 25 26 28 30 30 29 29 31 32 28 22 20 21 23 27 28 29 29 28 29 30 31 30 29 29 29 29 29 26 26 26 26 25 25 25 25 25 25 25 26 25
30 31 31 29 28 25 24 22 26 23 20 21 23 21 23 27 28 29 27 27 28 26 23 22 21 22 24 25 29 32 30 30 29 28 28 30 30 29 28 28 28 26 26 26 26 27 26 26 27 26 25 24 25 25
25 27 27 26 24 23 23 20 19 19 18 18 20 21 21 24 25 25 25 27 22 19 20 20 20 22 26 28 29 29 30 31 27 26 27 28 30 29 28 28 28 28 27 28 27 26 26 25 24 25 26 25 27 27
28 27 26 23 23 23 25 21 16 18 17 17 15 16 16 19 21 23 28 18 17 17 20 20 21 22 23 26 26 26 26 31 32 28 28 28 28 28 28 28 26 26 26 26 26 26 27 25 25 24 24 24 25 25
26 26 24 21 18 16 15 19 15 15 15 16 16 13 14 19 23 26 18 17 16 19 20 21 22 24 25 25 21 20 22 24 26 28 29 28 29 28 29 29 29 27 27 28 28 29 27 27 26 26 26 24 24 25
25 21 20 18 17 15 16 13 12 13 12 11 11 11 19 16 20 14 11 13 16 18 17 18 20 19 19 19 18 18 18 20 22 23 21 28 28 29 30 29 29 29 28 29 29 27 27 26 26 25 24 23 24 26
20 18 19 14 17 13 9 7 6 6 5 6 7 13 11 13 16 13 11 13 13 13 14 15 18 16 14 14 16 16 19 18 19 17 17 18 25 30 29 30 30 30 29 28 26 26 25 25 24 23 23 22 25 25
13 16 17 12 12 10 7 6 7 5 5 3 9 8 7 7 9 7 10 12 12 13 13 14 15 14 14 15 15 15 16 18 19 15 15 16 16 16 26 24 23 23 28 27 25 24 24 25 24 23 23 24 26 26
12 13 12 10 9 8 8 8 5 4 2 4 7 3 3 5 6 10 12 14 14 15 14 14 15 15 14 15 15 17 19 18 17 16 17 17 17 17 21 21 18 19 23 26 25 24 24 24 23 23 21 21 22 24
14 13 8 11 6 6 5 4 3 2 6 3 4 2 4 7 7 12 13 13 13 14 13 13 15 17 15 15 15 13 14 15 18 18 17 16 16 17 17 18 19 19 19 19 19 21 24 24 24 24 23 23 22 22
12 13 8 7 7 7 5 4 6 7 5 5 6 9 11 12 15 15 15 12 12 14 13 13 14 14 17 14 12 12 11 11 10 8 8 8 10 12 16 16 16 17 18 18 18 18 18 18 17 18 19 20 20 21
14 11 6 5 2 5 13 15 13 11 8 10 7 3 10 14 13 12 12 12 15 13 11 11 11 8 8 11 11 9 10 9 8 8 7 8 11 13 14 14 14 15 16 16 16 17 17 18 19 18 17 16 17 18
12 10 7 6 11 13 14 13 12 10 9 10 8 11 12 13 13 11 12 12 12 11 12 9 10 9 7 6 6 8 7 8 8 7 8 10 11 11 12 13 14 15 14 14 14 13 13 14 14 15 16 16 17 16
14 10 6 8 10 12 11 13 12 10 8 7 8 9 8 8 10 11 12 11 10 11 11 12 9 9 7 7 10 8 6 9 8 6 5 5 5 6 6 9 11 12 9 9 9 10 12 12 12 12 12 13 14 15
9 10 9 8 7 8 7 8 7 4 5 5 11 9 8 8 8 12 13 12 13 12 10 12 10 7 6 6 5 6 7 9 5 7 4 4 4 3 3 4 4 4 6 6 7 8 8 8 9 9 10 12 13 14

GFSWCAN_sfc_30mbdewp_222.txt.gz
Dewpoint
35 35 36 35 35 35 34 35 36 37 38 38 39 39 38 38 40 41 38 42 37 32 34 32 33 28 29 26 24 26 25 25 24 20 20 19 19 22 22 27 27 28 31 31 31 29 28 32 37 33 34 26 30 36
35 35 36 35 35 35 35 35 36 37 38 38 39 39 38 41 40 41 36 41 40 33 32 38 36 35 32 31 28 30 27 26 25 24 25 22 20 28 24 17 31 29 33 32 34 31 33 32 35 33 30 26 29 35
33 35 35 35 35 35 35 36 36 37 38 38 39 39 38 41 40 41 37 38 36 33 33 33 33 35 36 34 34 26 30 30 31 35 31 27 21 22 20 25 27 26 37 34 33 35 27 28 26 25 27 27 32 33
31 33 34 34 35 35 35 35 37 36 38 38 38 38 39 41 41 41 37 38 35 33 25 30 35 34 36 36 35 35 33 34 33 35 30 26 27 30 22 24 31 34 35 32 33 29 27 25 25 25 29 31 30 29
31 31 32 32 34 35 35 35 36 35 36 36 38 37 40 40 41 39 38 38 38 27 27 29 33 34 34 33 32 33 33 32 31 29 29 25 28 30 32 32 31 34 33 33 30 31 26 23 25 28 28 27 26 24
31 31 31 30 32 34 34 35 35 35 36 36 37 38 39 41 38 35 30 36 39 33 28 24 31 33 33 33 32 32 32 31 30 28 27 29 34 28 27 26 32 36 36 35 29 24 24 25 26 27 27 27 26 25
31 31 30 29 30 32 32 33 34 34 34 35 37 39 38 40 37 32 30 36 38 36 30 25 26 31 32 32 31 31 33 31 30 29 29 28 29 33 29 23 31 36 36 30 27 26 25 23 23 23 24 24 22 20
32 31 27 28 28 30 32 31 32 33 34 35 37 38 39 39 37 34 36 39 40 35 32 25 25 27 33 29 28 32 29 30 30 29 31 29 31 32 27 31 34 36 37 35 33 29 29 26 24 23 22 20 19 17
32 30 28 30 28 28 29 29 30 31 34 36 38 36 36 35 31 33 38 39 39 34 27 26 22 21 31 29 30 30 30 26 31 28 29 30 27 25 27 29 33 35 35 36 37 36 35 31 31 28 22 18 17 19
31 28 30 30 29 28 28 30 30 31 32 36 32 32 27 32 36 37 33 30 31 33 32 27 29 23 29 28 26 26 28 24 21 24 28 25 23 25 25 30 35 35 35 36 33 32 34 31 25 18 17 18 22 26
30 28 31 25 27 28 28 30 31 30 32 30 29 29 31 36 27 27 26 25 26 25 28 27 26 24 30 25 26 27 23 25 19 22 23 22 21 22 26 30 34 36 36 34 33 32 28 18 17 18 22 28 29 29
30 30 26 27 27 27 28 30 31 29 29 30 31 33 33 30 27 26 23 24 25 20 25 23 24 26 26 28 24 26 23 25 18 24 23 18 22 26 25 26 26 27 32 33 31 26 21 22 25 29 30 29 29 28
30 28 27 28 29 31 32 31 28 31 34 35 33 28 28 24 20 20 18 18 19 24 26 25 23 25 27 28 26 23 22 17 24 21 19 20 24 27 21 21 23 25 28 28 27 29 30 30 29 28 28 27 27 26
31 30 28 30 32 31 30 27 31 34 32 30 26 20 20 16 22 22 21 23 26 25 25 25 23 26 26 25 22 16 18 20 19 16 19 22 26 29 30 29 28 28 29 30 29 29 28 28 28 28 27 27 26 25
30 29 29 32 30 28 27 32 34 34 31 26 23 19 19 23 24 24 25 26 26 26 26 26 26 25 21 19 20 18 17 17 18 20 21 27 29 30 30 29 28 28 28 28 28 28 27 27 26 26 27 27 26 25
29 27 32 32 30 29 31 33 33 31 26 26 22 20 23 23 23 25 25 24 28 27 26 23 21 19 18 20 17 16 15 17 23 26 28 29 29 29 29 29 29 28 28 27 26 26 26 26 25 25 25 25 24 25
28 28 31 29 30 30 32 30 28 25 23 22 21 26 27 27 26 27 29 29 30 24 19 22 18 16 19 16 17 24 22 24 28 27 28 29 29 29 29 28 28 28 27 27 27 27 26 26 25 25 24 24 25 25
26 27 29 31 31 29 28 27 25 25 21 22 21 21 25 29 27 28 28 28 29 29 27 23 26 19 20 19 21 27 28 29 30 29 29 29 29 29 29 28 28 27 27 27 27 27 26 25 25 24 25 25 25 25
28 30 31 31 31 28 22 23 25 22 21 22 23 24 26 29 29 28 27 26 28 32 30 27 19 18 20 23 26 28 28 29 28 29 29 29 29 28 28 27 26 26 25 25 26 25 26 25 26 25 25 25 24 25
30 29 29 30 30 24 22 21 27 23 20 19 23 19 22 24 27 27 26 27 25 24 20 18 17 18 18 22 26 30 30 30 29 27 27 28 28 27 27 26 25 26 26 26 26 26 26 26 26 26 26 26 25 25
27 27 27 28 26 26 23 21 19 19 19 17 20 21 20 25 24 24 23 21 16 16 16 17 18 20 24 26 25 27 28 30 27 27 27 27 29 28 27 26 26 26 26 26 26 26 27 26 26 26 26 27 26 26
31 28 26 26 21 22 23 23 17 18 18 18 16 18 16 18 21 22 20 13 14 15 17 17 19 21 22 20 20 21 23 31 28 28 29 29 27 27 27 27 27 26 27 27 26 26 26 26 26 26 26 27 26 25
28 27 26 23 17 15 15 20 16 16 15 16 18 15 18 20 22 20 14 15 15 17 18 18 20 20 19 20 20 19 20 21 22 25 27 28 29 29 28 27 26 25 26 27 27 27 25 25 25 25 26 26 25 26
25 22 19 18 17 14 17 12 13 13 10 9 10 14 16 16 19 10 9 11 13 14 15 16 17 16 16 16 15 15 16 19 20 17 18 24 28 28 29 28 28 27 26 28 28 27 27 26 26 26 25 24 25 24
20 16 17 12 16 13 8 6 6 6 6 7 9 10 7 13 13 9 8 10 11 10 11 13 15 14 13 14 15 16 17 17 16 14 15 17 17 27 29 29 29 28 28 28 26 26 26 26 25 25 24 24 24 25
13 14 16 12 11 9 7 6 6 4 4 2 9 6 7 7 5 5 8 10 10 11 11 12 12 11 12 13 12 12 14 17 17 13 14 15 15 15 21 25 25 25 27 27 26 25 25 25 24 24 24 24 25 25
12 12 13 12 13 10 7 6 7 2 1 5 4 2 2 5 3 7 12 14 13 12 13 14 13 12 11 11 12 13 15 16 15 14 16 16 16 16 16 16 16 17 23 26 25 25 24 23 23 23 23 24 26 26
17 13 7 8 7 7 4 3 1 2 4 5 3 1 5 4 5 12 12 12 13 13 13 16 15 13 11 11 11 11 11 16 16 17 15 15 15 15 16 16 17 18 19 21 25 26 25 24 23 23 23 22 23 24
12 12 8 6 6 6 5 4 6 6 7 6 6 8 9 12 13 12 11 11 15 15 11 10 11 13 10 9 8 9 9 9 7 7 7 7 8 10 14 14 15 16 17 18 20 20 20 21 22 22 22 21 21 21
11 10 3 4 3 7 11 12 8 6 9 9 7 10 12 12 11 9 10 12 12 9 8 7 6 9 8 5 5 6 6 7 8 6 5 6 7 10 12 12 13 14 15 14 15 16 18 18 19 19 19 19 20 20
13 8 5 8 9 11 11 8 7 7 7 7 7 10 9 10 10 10 12 10 9 8 8 7 5 3 4 5 5 4 4 6 4 5 6 6 5 5 7 9 11 13 13 12 12 13 13 14 15 15 16 17 18 18
14 8 7 7 8 10 9 10 7 7 5 6 6 7 6 7 7 9 11 9 9 10 11 8 6 6 6 6 4 4 6 5 3 2 1 1 2 3 4 4 6 8 9 10 10 10 10 11 11 11 12 12 14 15
9 7 7 6 7 7 6 6 5 7 5 7 9 6 6 7 6 10 13 10 8 8 8 6 4 3 4 4 6 7 6 5 5 4 3 3 1 0 -1 -1 -1 1 2 3 4 5 6 8 9 10 11 11 12 13

GFSWCAN_sfc_30mbdewp_225.txt.gz
Dewpoint
31 31 33 34 35 36 35 35 35 34 35 35 36 38 38 39 39 40 38 40 37 31 33 35 34 31 30 29 25 26 26 27 28 24 22 20 19 17 17 18 19 15 17 21 26 23 21 38 36 33 34 34 32 34
34 31 31 33 35 34 34 35 35 35 35 35 36 37 39 37 42 40 37 39 41 33 31 37 37 36 32 30 28 29 25 27 28 24 23 19 17 19 16 14 18 17 22 22 28 28 38 37 38 38 35 35 32 33
34 32 31 31 32 32 33 34 35 35 34 35 35 36 38 38 41 41 38 38 36 32 33 33 32 36 36 34 33 29 30 28 29 28 24 22 19 20 16 16 21 23 24 24 29 32 37 38 39 36 31 32 32 35
33 33 32 31 31 31 31 32 34 33 34 34 34 36 39 39 41 42 38 37 34 32 26 29 36 35 36 36 34 33 31 33 32 34 28 26 25 27 21 21 19 18 27 30 29 29 29 31 34 37 30 31 32 37
32 33 32 31 31 30 30 31 32 32 32 33 32 35 39 39 41 39 36 37 38 28 27 29 32 33 34 34 33 34 32 31 30 29 28 25 26 26 27 28 25 29 25 23 22 27 32 32 32 36 36 30 31 35
32 34 31 31 29 28 28 29 31 32 29 33 33 35 39 39 39 34 30 34 37 33 27 22 30 32 33 32 31 30 31 32 31 28 26 28 30 25 21 18 18 21 29 31 27 31 31 29 32 40 38 31 30 30
32 33 31 31 28 28 29 28 29 30 30 33 34 35 38 39 38 31 28 34 37 37 28 25 25 30 32 31 32 31 32 30 29 28 27 26 27 28 25 21 22 28 32 36 36 33 26 26 25 28 28 27 25 24
32 33 31 30 29 29 29 28 26 30 31 33 34 39 39 39 37 34 37 39 40 34 32 24 24 26 32 28 27 32 29 30 29 28 29 26 27 29 23 23 23 24 31 32 30 29 27 26 26 23 22 22 22 21
32 33 32 29 30 28 27 28 27 30 31 32 36 36 36 34 31 31 38 39 39 34 27 26 22 19 32 29 30 30 30 25 29 24 25 29 25 23 24 23 24 29 32 33 32 26 26 25 26 27 26 25 25 26
33 33 31 29 30 28 27 27 28 30 31 32 33 32 28 32 36 38 33 29 31 31 31 26 28 22 28 27 26 25 27 24 21 24 28 25 23 25 25 27 29 32 37 36 31 30 31 31 31 32 32 32 32 32
33 32 30 30 28 28 27 27 30 30 30 29 28 28 31 35 32 27 25 25 25 24 27 27 27 25 29 25 25 27 23 25 19 22 22 22 20 23 25 27 28 33 35 36 33 33 34 34 34 32 28 28 29 29
33 31 31 29 27 27 29 32 31 29 27 29 31 34 33 31 27 25 22 24 25 21 25 23 24 25 26 30 26 26 23 24 18 24 22 18 21 28 28 28 31 37 37 37 36 35 35 34 33 31 32 31 30 30
33 31 31 30 27 30 32 31 28 29 33 35 33 29 27 22 21 20 17 21 21 23 26 25 22 26 28 28 27 25 21 18 24 20 17 21 27 29 30 31 34 36 35 34 34 34 32 29 29 30 29 29 28 27
33 31 31 29 29 32 31 29 30 33 32 29 27 21 21 15 22 21 21 22 24 25 25 25 23 25 26 25 24 21 18 20 18 16 17 24 28 29 30 31 33 33 32 31 30 29 29 29 29 29 29 29 27 26
31 31 30 29 33 31 30 31 32 34 31 27 24 19 20 21 23 24 24 25 26 27 26 25 26 28 23 21 21 18 16 16 19 20 23 27 29 29 29 30 30 30 30 30 30 29 28 28 27 27 28 27 25 25
31 30 29 32 29 30 31 32 33 32 28 26 23 20 22 23 23 25 26 26 30 28 28 25 22 20 18 21 18 18 17 17 22 26 27 29 29 29 28 29 29 29 29 29 29 28 28 28 27 25 25 25 24 24
30 26 30 28 29 31 31 30 28 25 22 23 22 25 25 26 25 27 28 27 28 26 23 24 19 17 19 18 18 24 21 24 27 26 28 29 28 28 28 28 27 27 26 27 26 26 25 25 25 24 24 24 25 25
29 28 28 30 32 31 28 27 24 25 21 21 21 19 23 26 26 28 26 26 27 28 27 24 27 22 19 17 20 25 27 28 29 28 28 29 29 29 28 27 27 27 26 26 26 25 25 24 24 24 24 25 25 25
30 28 30 31 31 29 25 23 25 22 21 22 22 23 24 27 28 28 25 25 27 31 28 25 18 15 15 19 17 19 27 28 26 26 27 28 28 27 27 27 27 26 26 26 26 26 26 25 25 25 25 25 24 25
28 29 29 29 30 24 22 22 26 23 20 19 23 19 21 23 26 25 20 20 21 20 15 15 14 15 17 19 21 20 27 29 27 25 25 26 27 27 26 25 25 26 26 26 26 27 26 25 25 25 25 25 24 25
29 28 29 28 28 27 23 22 19 20 19 17 19 21 20 24 24 23 17 17 13 14 13 15 16 19 22 20 20 20 21 23 28 25 25 25 27 26 26 26 26 26 25 25 25 26 25 24 26 26 25 25 25 26
30 31 26 27 21 21 22 23 17 18 18 18 17 18 17 20 19 18 15 11 12 13 15 15 17 18 17 17 18 19 19 23 28 28 28 27 25 25 25 26 25 25 26 25 26 25 25 25 26 27 26 26 26 26
29 27 26 24 19 15 15 21 17 17 15 15 18 17 19 19 20 16 12 14 14 15 17 17 18 19 17 18 18 18 18 19 18 19 23 28 28 27 27 27 26 26 25 26 27 26 26 26 26 26 26 26 25 25
26 22 19 18 18 14 17 11 14 12 10 8 12 15 14 18 14 8 7 9 11 12 13 15 15 14 15 15 14 14 16 18 17 16 16 20 27 27 27 26 26 25 26 27 27 26 25 25 26 26 25 25 25 24
19 16 17 12 16 13 8 5 7 6 6 7 10 7 6 14 8 6 6 8 9 9 10 11 12 12 11 12 13 13 16 16 14 13 14 16 16 22 27 28 28 27 27 27 25 25 25 25 25 25 24 24 24 24
12 14 16 13 12 9 7 6 5 4 2 5 8 5 7 5 2 3 6 8 9 10 10 10 8 8 9 10 10 11 12 16 15 12 13 14 14 14 16 22 25 24 24 27 26 24 24 24 23 24 24 24 25 24
13 12 16 16 15 10 7 6 7 2 1 5 3 2 3 2 1 5 11 11 11 12 12 11 10 9 8 8 9 11 13 15 15 14 15 14 14 14 14 13 13 16 19 24 26 24 23 23 23 23 23 24 25 24
16 13 8 8 6 8 4 2 0 2 2 7 2 2 3 1 3 10 10 12 11 13 14 13 10 9 8 8 9 10 9 9 12 12 11 12 14 13 14 14 16 17 18 21 26 25 24 23 22 23 23 23 24 24
14 11 7 5 6 7 7 4 5 6 9 5 5 6 7 10 11 11 11 12 13 11 11 9 7 5 4 5 5 6 6 6 5 5 5 5 6 7 11 13 14 14 15 16 20 24 25 24 23 22 23 23 23 23
10 9 4 3 5 8 9 9 6 5 9 7 10 11 10 11 11 6 12 13 11 9 7 6 6 5 3 3 3 4 4 4 5 4 3 3 4 6 8 9 11 12 13 14 14 16 19 21 22 21 21 21 21 21
13 7 8 8 8 10 9 6 4 4 4 7 5 6 7 9 10 10 10 9 7 5 5 4 4 2 4 3 2 1 2 3 1 2 3 3 3 3 5 7 8 10 11 11 12 13 14 15 16 17 18 18 19 19
11 7 7 5 7 9 8 8 5 4 3 5 7 3 6 6 5 9 9 7 7 8 6 3 4 4 4 3 2 2 3 2 0 0 0 -1 -1 -1 -1 -0 3 5 7 8 9 10 11 11 11 12 12 14 16 16
7 6 6 6 7 7 6 4 4 7 4 7 7 4 4 5 4 8 9 8 9 8 8 5 4 4 4 3 5 5 4 3 2 4 2 1 -1 -1 -2 -2 -1 -0 1 2 3 5 7 8 9 10 10 11 12 13

GFSWCAN_sfc_30mbdewp_231.txt.gz
Dewpoint
38 35 34 35 36 35 35 33 32 32 33 32 32 34 36 34 32 32 34 36 34 29 29 31 31 30 31 30 26 31 29 29 28 23 22 21 19 18 14 12 14 16 16 16 18 15 12 14 14 12 12 14 16 18
38 34 35 36 35 34 35 33 33 32 32 32 31 33 33 31 32 34 33 36 38 33 31 35 34 33 32 36 33 32 30 29 28 25 24 22 20 19 16 12 16 13 16 16 16 15 17 17 16 20 16 17 34 38
36 34 34 36 34 33 34 33 32 33 30 29 30 30 31 32 32 33 36 37 37 31 32 32 32 35 39 38 38 29 31 33 31 30 25 23 19 21 17 17 15 18 20 17 19 19 22 22 23 33 33 30 27 25
34 35 35 36 33 33 35 33 32 32 29 30 31 26 30 33 34 35 37 38 35 33 26 25 36 34 37 37 37 37 35 35 34 33 29 27 22 23 19 18 18 17 21 18 18 19 17 18 19 20 22 23 25 29
34 35 32 34 33 33 34 31 31 30 31 31 30 27 28 33 33 37 39 39 39 33 25 25 30 34 36 36 36 36 35 34 32 29 29 26 27 27 28 26 23 20 18 18 16 17 17 17 19 23 27 27 26 27
34 36 32 33 32 33 35 31 30 30 30 30 30 27 30 32 34 36 31 33 37 36 29 23 26 31 33 34 34 32 33 32 32 30 28 29 31 27 25 20 20 24 25 21 19 19 19 21 23 23 24 26 27 29
34 34 31 32 32 34 33 30 30 31 29 30 28 28 31 33 38 32 31 34 38 35 30 24 23 29 32 32 31 31 32 31 31 30 27 26 26 29 25 20 21 21 23 24 25 25 25 25 25 25 25 26 30 33
33 31 31 32 32 35 32 31 29 28 30 27 29 31 32 34 39 35 37 39 40 34 32 24 22 25 32 27 26 32 28 29 29 26 28 26 25 25 20 18 19 21 21 22 22 23 24 26 26 27 28 29 27 30
31 31 31 32 33 34 31 31 29 29 30 30 30 33 35 35 32 31 35 39 40 34 27 26 23 21 31 29 29 30 29 24 28 24 25 25 22 20 20 20 20 20 21 22 22 23 23 23 23 24 24 28 29 29
31 31 31 32 33 33 31 31 29 30 32 30 31 30 27 32 37 35 30 30 31 30 29 25 28 25 29 27 26 26 27 23 20 22 25 23 19 19 20 21 24 26 25 26 25 25 25 25 25 26 28 28 28 32
29 30 31 31 32 33 32 31 28 33 29 26 27 26 30 34 33 28 23 24 25 23 28 28 27 25 29 25 24 27 24 23 18 19 22 20 20 23 26 28 29 29 30 30 30 28 27 27 28 29 29 29 30 31
31 28 30 31 33 33 32 30 31 31 27 26 28 33 33 31 28 23 22 23 22 21 26 25 24 26 27 30 26 27 23 23 17 25 21 17 20 24 28 28 28 28 28 30 32 32 30 28 31 31 32 31 31 30
33 32 30 30 33 32 31 30 33 30 28 32 31 28 27 21 18 18 16 21 20 23 25 25 23 25 28 29 26 25 21 19 24 20 17 18 23 27 29 29 29 29 29 32 35 35 32 33 34 34 33 32 32 32
34 32 31 31 33 32 32 32 31 31 31 27 24 19 19 16 18 20 21 21 23 25 25 25 25 23 25 24 24 21 21 22 16 16 16 23 26 28 30 29 28 28 28 29 30 36 34 34 32 32 32 32 31 30
30 33 31 31 30 31 30 29 31 32 31 24 26 18 19 21 22 23 23 25 26 27 27 25 25 26 24 23 23 22 15 15 17 18 21 25 28 29 28 28 27 27 27 28 28 29 30 30 29 29 30 30 30 30
28 34 30 30 29 30 29 31 33 32 30 27 26 23 20 21 20 24 26 26 29 28 29 28 25 22 21 21 20 16 18 16 19 22 26 27 27 29 28 28 27 27 27 27 27 27 26 25 26 26 28 29 28 29
27 32 31 30 31 30 31 31 31 28 25 22 21 23 21 23 20 24 28 28 27 27 23 23 20 19 22 19 20 18 15 17 19 20 26 28 28 27 28 28 27 26 26 26 27 27 27 28 28 26 23 24 25 26
29 33 33 32 31 30 29 28 27 24 23 23 22 21 24 25 25 25 27 26 26 26 25 24 25 22 17 15 14 15 17 18 19 20 26 26 27 27 27 26 26 27 26 26 27 27 27 26 25 24 25 25 25 25
30 33 34 33 30 30 25 24 25 21 22 22 22 22 23 25 27 22 20 23 27 24 25 20 14 13 13 15 15 15 16 17 17 19 25 27 27 26 26 27 27 26 26 26 25 25 25 26 26 26 26 26 24 25
28 35 32 30 29 28 23 23 27 24 22 21 23 21 21 25 24 19 17 20 22 19 15 12 12 13 14 16 17 16 17 19 19 19 25 25 27 26 26 27 26 27 26 26 26 26 25 25 25 26 26 25 25 25
33 29 32 30 29 29 25 23 22 24 22 18 20 21 23 25 21 19 17 15 12 13 11 13 13 16 18 19 19 18 17 17 19 20 23 25 26 26 26 27 26 26 25 25 25 24 24 24 25 25 25 25 26 26
28 31 28 28 26 24 22 22 22 21 18 19 19 20 20 17 15 15 13 10 10 11 14 13 14 15 15 15 16 17 17 18 19 19 19 22 25 24 25 26 25 25 25 25 25 24 25 25 25 26 25 25 25 25
30 30 28 27 21 19 15 22 18 19 16 17 19 19 18 16 16 12 9 10 10 12 13 14 14 15 16 15 15 14 15 16 15 14 16 18 24 26 26 26 27 25 25 24 25 25 25 25 25 26 25 25 25 25
29 24 21 20 20 15 16 16 18 16 13 14 17 15 15 12 10 6 5 6 8 10 9 10 11 10 10 10 11 12 13 14 14 14 13 14 17 20 24 27 27 26 26 26 26 26 26 26 26 26 26 25 24 24
19 16 18 15 17 16 12 10 10 8 8 10 10 7 11 13 7 3 3 6 7 8 7 7 9 8 8 9 10 10 13 14 12 11 12 13 13 16 19 25 21 20 23 25 25 24 25 26 26 25 25 25 24 24
13 12 13 13 14 14 9 5 5 5 8 9 6 6 7 4 4 3 4 6 7 8 7 7 7 8 8 8 8 9 10 12 13 10 10 11 10 11 11 13 17 17 16 18 22 24 24 24 25 25 24 24 24 24
11 13 16 18 18 11 8 8 7 4 3 5 3 3 3 -1 1 3 7 7 9 9 8 7 7 7 7 7 7 7 7 9 13 11 13 11 10 10 10 9 9 12 15 16 17 22 24 25 24 24 25 25 24 23
13 15 12 11 9 8 4 3 2 2 4 6 2 -0 -1 -1 2 6 9 9 10 9 8 8 7 6 5 4 4 4 4 5 9 11 10 10 11 9 7 9 11 13 13 15 17 21 24 24 23 23 24 23 22 22
13 12 10 9 10 8 6 4 5 7 9 4 3 4 4 8 8 8 8 9 10 6 4 3 3 2 2 2 2 2 2 3 3 1 1 2 2 3 3 6 8 9 11 12 15 18 24 25 24 24 23 24 24 22
12 14 9 7 7 7 8 7 7 6 8 9 10 9 8 8 6 4 8 10 8 6 4 2 3 3 2 0 -1 -0 -0 -0 1 1 0 -0 0 -1 -2 1 3 6 9 11 12 15 19 25 24 23 23 22 22 22
14 12 8 7 6 7 6 2 1 2 4 5 2 4 5 6 8 6 8 7 5 3 5 6 4 1 2 0 -1 -2 -0 0 -1 -1 -1 -2 -2 -2 -2 -2 -0 2 6 10 11 12 14 16 20 22 22 22 22 22
10 8 6 5 6 7 4 4 3 3 3 5 4 -0 2 4 5 6 3 4 5 6 4 3 2 2 2 1 -2 -2 -1 0 -0 -0 -1 -0 0 -1 -2 -3 -2 -0 1 4 8 10 12 12 13 15 18 20 21 21
8 6 6 6 7 7 5 3 3 5 3 4 2 -2 -0 2 3 6 3 3 6 6 5 3 2 3 2 2 2 1 -0 -0 -2 -1 -1 -1 -2 -1 -1 -3 -3 -3 -1 1 2 5 8 10 10 11 12 13 14 15

GFSWCAN_sfc_30mbdewp_234.txt.gz
Dewpoint
37 38 39 36 35 36 36 35 35 35 33 33 33 33 32 32 34 35 33 33 33 27 26 24 24 27 27 30 25 25 29 31 29 25 25 24 21 18 18 13 13 17 17 17 17 16 13 13 11 8 11 12 12 12
38 38 37 35 35 36 36 34 34 34 33 33 33 30 30 31 31 33 32 31 34 32 28 32 32 31 30 32 29 31 27 26 31 27 29 27 24 20 17 13 14 13 17 15 14 14 15 14 12 13 15 14 14 14
36 37 34 35 36 36 36 33 35 34 33 33 32 30 30 31 29 30 33 34 34 30 30 30 30 34 35 34 35 29 32 33 32 33 31 30 26 23 18 18 15 14 14 18 16 16 15 15 15 16 16 15 17 19
36 33 34 35 33 34 34 33 35 34 32 32 30 31 31 31 28 29 33 36 36 31 27 27 34 35 36 35 36 37 35 35 35 33 29 29 26 24 19 18 18 17 16 16 17 17 16 15 15 17 18 19 18 19
32 33 35 36 33 33 33 33 35 33 31 30 30 30 30 31 31 33 36 37 38 31 28 28 30 31 36 37 37 36 35 32 31 29 29 27 28 26 24 25 20 19 19 19 20 17 17 17 17 18 18 17 19 19
32 34 35 33 31 32 32 33 35 33 31 31 29 29 31 30 30 34 31 36 39 36 30 24 29 32 33 33 34 34 33 32 31 31 31 32 31 27 23 19 19 19 21 20 19 18 18 18 18 18 18 18 19 21
34 34 33 31 31 32 33 35 33 32 29 28 31 31 28 30 34 32 32 35 38 37 30 25 25 30 31 32 33 32 32 31 31 31 30 28 26 30 26 21 19 20 20 20 21 22 22 22 21 21 20 20 21 22
33 32 31 32 32 32 33 33 32 31 28 30 30 33 32 32 33 34 38 39 39 34 31 25 22 26 31 27 27 33 30 30 31 30 28 25 24 26 20 17 18 18 17 18 19 20 20 21 21 21 20 21 21 21
32 32 31 31 32 32 34 34 32 32 28 31 33 30 34 35 32 33 36 38 40 34 27 26 20 19 30 28 31 30 31 25 29 25 24 26 21 21 19 17 17 18 20 21 22 23 22 21 21 21 21 21 20 21
33 31 31 32 32 31 34 33 33 29 31 32 30 30 29 33 35 35 34 31 31 31 30 26 24 23 28 27 27 26 28 24 21 21 25 23 18 18 20 24 25 26 27 27 27 27 27 26 25 24 23 23 23 23
33 34 31 30 31 31 33 33 31 30 31 24 27 26 29 34 30 29 26 25 27 24 27 25 25 22 29 25 24 25 24 23 18 18 20 17 16 21 24 26 27 29 28 28 28 28 28 29 30 29 26 25 26 29
28 30 34 33 31 31 33 32 31 31 31 25 25 30 31 30 27 24 22 22 21 19 27 25 25 26 27 29 26 24 21 23 15 24 21 15 19 24 26 28 28 29 29 28 29 31 31 31 30 33 30 28 29 31
25 27 29 35 32 31 34 32 33 33 30 27 30 27 27 24 19 17 16 17 19 23 26 25 25 27 28 28 26 25 22 17 23 20 15 16 23 25 27 29 29 29 28 28 28 30 31 36 35 34 33 35 34 32
26 26 28 33 33 31 30 32 30 30 26 26 22 19 19 18 17 16 17 21 21 22 24 26 25 24 24 25 22 20 19 22 16 13 13 20 25 27 28 29 29 28 28 28 28 28 31 36 35 36 34 33 32 31
26 26 26 29 33 29 30 30 29 30 24 22 24 17 18 19 23 25 26 24 24 28 28 27 26 25 22 23 22 22 19 14 13 17 20 23 25 29 30 29 28 28 27 27 28 27 28 29 29 30 31 31 31 31
26 25 27 33 31 29 31 29 29 28 27 24 22 21 23 23 23 25 27 26 28 29 29 29 25 24 21 20 18 16 13 14 19 20 23 24 25 25 28 28 29 29 28 28 28 28 28 27 27 28 30 30 30 29
28 25 35 33 35 31 31 28 29 28 24 23 21 24 24 23 22 24 25 26 30 27 24 23 20 16 22 18 15 20 17 19 20 21 22 23 26 27 28 27 27 28 28 28 28 28 28 28 28 27 25 27 28 28
28 25 28 32 36 31 28 30 27 25 22 21 19 21 26 26 24 24 27 28 28 28 26 23 25 20 18 15 17 18 18 20 20 21 23 24 26 27 27 27 27 28 28 28 28 29 28 28 27 27 28 28 28 28
25 30 28 30 35 29 26 26 26 20 18 21 24 24 24 26 28 26 25 25 27 28 28 24 19 18 17 16 17 17 18 18 19 21 23 29 29 28 28 28 29 28 27 27 27 27 27 28 28 28 28 28 27 28
22 30 29 29 35 27 24 22 28 23 18 21 24 23 22 24 25 23 23 25 25 23 20 17 16 16 16 16 18 18 18 19 19 19 22 25 29 28 28 28 28 29 29 29 28 29 28 27 28 28 27 27 26 26
30 28 30 30 27 25 24 21 22 21 22 21 21 22 23 25 23 22 21 19 20 16 15 15 16 16 17 18 18 18 18 18 18 19 20 21 25 27 28 28 28 28 28 28 27 27 27 26 27 27 27 27 27 28
29 32 32 28 25 26 24 21 20 23 21 19 21 21 21 21 19 19 14 15 14 14 14 14 15 15 16 16 17 17 17 17 19 19 20 21 23 25 26 27 26 26 26 27 28 26 26 26 26 26 26 27 27 27
32 31 29 25 22 21 16 20 18 17 17 17 20 18 19 18 16 13 13 11 12 13 14 14 14 15 16 16 15 15 16 16 17 17 17 18 22 28 27 27 26 25 25 26 28 27 26 26 26 26 26 26 26 26
32 27 23 19 19 18 18 18 20 20 18 18 16 16 16 15 11 10 10 10 11 11 11 12 12 13 14 14 14 14 14 16 16 15 15 16 18 21 24 27 27 25 27 26 26 28 28 27 26 25 25 25 24 24
20 19 20 16 19 18 15 15 17 16 15 15 14 13 15 15 12 9 9 9 10 11 10 10 11 12 12 12 12 13 14 14 14 13 13 13 15 18 20 23 22 20 22 26 27 27 27 28 28 27 27 25 24 24
13 15 15 14 16 14 13 12 13 11 12 13 11 11 11 12 10 8 7 10 10 11 11 12 12 11 11 11 11 11 12 14 13 12 12 12 11 11 12 14 15 17 16 19 21 26 27 27 28 27 27 27 25 25
12 13 16 17 19 14 12 10 9 8 9 9 9 8 8 5 6 7 10 10 10 11 11 12 11 11 11 11 10 10 11 13 13 13 13 12 11 11 10 9 9 11 14 16 18 21 25 27 26 26 27 27 27 27
14 15 13 15 14 10 9 8 8 7 8 7 7 6 5 3 4 10 11 12 12 10 10 8 7 7 6 6 7 8 10 12 14 13 14 11 10 8 8 10 11 12 14 15 16 19 23 26 27 26 27 25 26 27
15 15 14 11 13 12 11 9 8 9 9 8 7 6 7 9 11 11 12 12 11 10 8 8 7 8 6 6 6 5 6 8 6 3 3 4 4 5 4 5 7 10 12 14 16 18 20 24 26 27 27 26 26 26
13 15 11 10 10 10 11 10 11 11 10 11 9 8 8 10 10 10 13 12 10 10 10 10 10 9 6 5 5 5 5 5 5 5 3 2 3 3 4 5 5 6 9 13 15 16 19 25 26 27 27 26 25 25
14 13 11 10 8 9 9 8 8 9 10 9 9 9 8 9 11 11 13 13 12 10 10 9 7 7 5 5 4 4 4 4 3 3 3 4 4 4 4 4 5 6 7 11 13 15 15 18 22 25 25 25 25 24
12 11 9 7 7 9 9 9 8 9 9 9 7 7 8 8 7 10 10 11 11 11 9 9 7 7 7 6 5 5 4 5 5 4 3 4 4 4 5 4 5 5 5 7 11 13 14 14 16 20 25 25 25 25
10 10 9 8 8 8 8 8 6 7 7 7 6 5 7 6 6 9 8 9 11 11 10 10 10 8 6 6 6 6 5 5 2 1 2 2 1 2 3 4 4 3 4 5 8 10 11 11 11 13 15 19 22 23

GFSWCAN_sfc_30mbdewp_237.txt.gz
Dewpoint
36 36 38 38 39 37 35 36 37 35 35 36 34 34 34 34 34 33 30 33 35 30 27 24 23 21 21 22 22 24 26 27 29 24 22 20 19 17 16 16 16 22 18 19 21 19 16 14 12 10 12 12 11 12
37 37 37 38 36 35 36 37 37 35 35 36 34 34 34 31 30 31 30 30 32 32 30 28 28 28 27 26 28 30 28 26 32 28 28 25 25 24 18 14 16 17 20 15 17 18 17 16 14 15 13 13 13 14
35 35 37 35 34 36 34 34 36 34 35 35 34 34 33 30 31 31 29 27 31 30 29 29 28 28 30 31 33 29 29 29 30 30 30 26 24 22 21 21 18 17 20 18 18 17 15 15 15 16 16 16 16 15
36 35 33 34 35 36 33 35 34 34 35 34 32 32 30 31 31 31 30 28 31 32 24 22 24 26 34 34 34 36 34 33 36 34 30 29 24 23 21 21 21 22 20 19 20 20 19 18 18 17 17 17 16 16
35 35 33 35 36 36 33 33 33 34 36 35 33 32 32 31 30 32 34 32 32 31 25 26 28 27 30 34 34 33 34 35 32 28 28 26 25 25 25 25 22 20 20 22 24 21 21 19 18 17 17 17 17 17
34 33 34 34 34 32 32 33 33 35 35 34 32 29 30 30 31 34 30 36 38 38 29 23 28 30 33 34 34 33 34 34 31 30 29 29 30 32 27 19 19 21 24 22 20 18 19 20 20 19 19 19 18 18
33 33 33 32 32 32 32 33 34 34 32 33 29 29 31 31 31 31 27 36 37 35 29 26 23 29 32 32 32 33 34 32 31 30 29 29 28 31 25 20 19 18 18 17 18 19 19 20 19 19 20 20 20 19
33 32 32 32 32 32 32 33 34 34 33 33 29 29 33 33 32 31 32 35 37 32 31 26 21 28 31 28 28 32 31 32 32 29 30 27 26 32 23 17 16 15 16 17 17 19 20 20 19 19 19 19 19 19
36 35 33 32 32 32 32 33 35 33 33 31 31 33 31 32 31 32 37 38 39 34 27 29 19 18 30 27 28 31 31 27 29 28 25 26 23 21 18 16 17 18 20 22 23 23 23 23 23 23 22 21 20 19
28 29 33 36 32 31 32 32 33 34 31 31 30 29 29 30 34 33 33 32 32 32 31 24 21 23 29 25 27 27 29 23 22 22 24 24 19 18 17 21 22 24 23 24 24 26 26 26 27 27 27 27 25 23
25 26 29 30 35 33 31 32 34 33 29 26 25 26 29 32 27 32 27 24 24 25 26 23 20 18 31 24 26 27 24 24 18 16 19 17 17 21 26 23 25 26 26 26 26 26 27 27 28 30 30 29 28 29
25 26 26 27 29 35 33 32 34 31 27 31 27 24 27 27 27 23 20 19 19 16 23 23 24 24 29 26 23 22 21 21 15 25 20 14 26 25 25 26 27 27 27 27 28 28 28 27 28 31 32 32 32 31
25 28 26 26 29 33 34 32 33 33 32 26 28 26 26 22 21 17 13 14 15 18 24 24 25 26 25 24 24 22 22 18 21 21 14 17 25 24 26 27 28 28 29 29 28 27 26 27 29 31 33 36 35 35
23 28 26 26 27 29 33 32 31 29 27 22 20 19 18 17 16 11 10 15 23 20 19 21 22 22 23 23 21 19 18 20 17 12 11 26 24 25 26 28 28 28 28 28 28 27 26 28 29 32 33 37 36 35
21 25 27 26 27 31 32 31 30 27 26 20 18 15 13 14 17 21 23 23 23 24 26 26 25 22 20 20 20 19 21 15 11 16 23 24 24 25 27 28 27 28 29 29 30 29 29 28 29 30 31 31 32 31
21 22 26 34 33 33 31 30 31 27 26 17 15 16 18 19 21 23 23 23 27 28 28 28 22 20 22 17 15 15 11 11 22 22 23 23 23 25 26 28 28 29 29 29 30 29 29 28 28 29 29 29 30 30
20 23 27 28 27 31 36 33 31 27 19 15 17 18 18 19 20 23 25 25 30 27 23 20 20 15 18 15 11 21 20 22 22 22 23 24 26 27 27 27 29 29 29 29 30 29 29 30 30 29 27 29 30 30
18 18 21 29 28 32 31 29 26 21 20 17 16 20 21 21 21 22 22 25 26 23 23 20 23 16 13 14 20 21 20 21 21 22 22 25 29 30 29 29 30 30 29 29 30 30 29 29 29 29 30 30 30 30
19 19 20 22 29 31 28 24 24 20 15 14 16 19 21 21 23 26 27 28 27 28 28 24 19 15 17 20 20 20 20 20 20 21 22 27 30 30 30 29 29 31 31 30 30 29 30 30 30 30 30 30 28 29
18 20 21 23 29 29 26 20 24 19 15 14 18 20 21 21 24 27 26 26 26 26 24 22 21 22 20 20 20 19 19 20 19 20 21 23 26 26 28 29 28 30 30 31 31 30 30 29 29 28 28 29 28 28
16 20 25 26 30 31 27 18 18 16 16 17 18 17 21 25 23 24 23 22 23 22 19 19 20 20 19 19 19 19 18 19 18 20 20 20 23 24 29 28 27 29 27 28 29 30 28 27 27 27 28 28 28 29
16 22 28 28 25 25 24 17 17 18 20 17 16 19 19 21 21 22 22 20 21 20 19 19 18 18 17 19 18 18 18 18 19 19 20 20 21 23 26 28 26 27 27 28 28 28 28 27 27 27 28 29 28 28
18 24 25 24 24 20 15 15 17 16 16 16 14 16 19 18 20 18 18 17 20 17 16 16 17 17 17 18 17 17 17 17 18 18 18 18 21 26 26 27 28 26 27 28 29 28 27 27 26 27 27 27 27 28
23 25 22 20 21 13 17 14 15 13 15 14 14 16 18 18 15 14 15 16 17 15 14 14 14 16 16 16 15 16 15 16 17 18 16 17 17 20 25 26 24 24 25 29 30 29 29 27 27 26 27 27 28 27
18 15 21 15 18 14 15 12 10 12 14 12 15 18 17 16 15 14 13 16 14 14 14 13 14 13 14 14 14 15 15 15 16 15 15 15 15 17 19 23 23 20 20 22 23 28 29 29 29 27 26 25 25 26
11 16 16 12 12 10 9 7 9 11 12 14 17 17 15 15 13 11 12 15 16 15 15 15 14 13 12 13 12 12 14 15 17 14 14 14 14 14 14 14 15 18 16 18 20 21 26 29 28 28 28 25 25 26
13 14 16 13 12 12 14 14 15 15 14 13 15 14 13 9 8 12 12 14 14 15 14 13 12 12 12 12 13 13 14 14 14 14 15 14 14 13 13 12 11 13 15 17 18 19 21 24 28 29 28 28 28 27
14 12 12 13 13 13 14 14 13 13 14 11 12 11 8 6 8 12 13 15 14 12 11 10 10 10 10 9 9 11 12 13 15 14 15 15 13 11 9 10 12 13 15 16 17 19 20 22 25 29 29 28 28 29
13 13 15 15 15 15 16 14 14 11 11 10 10 9 9 11 13 12 13 13 12 10 9 10 11 11 10 9 10 9 10 10 9 5 5 7 8 8 8 9 9 10 12 16 18 19 20 21 22 27 29 29 29 29
14 15 13 13 12 13 15 15 15 14 11 12 10 8 9 11 12 16 14 12 11 11 11 11 11 11 9 9 8 8 8 8 7 7 6 5 6 7 8 8 8 9 11 13 16 18 19 21 27 27 28 28 27 26
16 14 13 12 11 13 13 14 14 13 12 12 13 11 10 10 12 15 16 14 14 13 11 10 9 8 7 7 7 7 7 7 5 5 5 7 7 8 7 7 8 9 9 10 14 16 17 18 21 24 27 26 25 25
16 14 11 9 9 12 14 15 13 11 11 11 9 9 10 11 9 11 13 13 12 11 11 9 9 9 10 9 8 8 6 7 7 6 5 5 6 5 6 7 7 8 7 9 12 14 14 14 16 18 20 27 27 26
13 13 12 11 9 10 11 12 8 9 9 8 8 9 10 9 8 12 12 15 15 13 10 12 13 10 8 8 8 8 7 7 5 4 3 3 3 3 4 4 4 6 7 8 9 12 11 11 11 12 13 18 26 27

GFSWCAN_sfc_30mbdewp_243.txt.gz
Dewpoint
33 34 36 38 38 39 39 38 37 36 37 38 38 37 36 37 36 35 34 35 31 28 26 27 26 24 23 24 22 22 22 21 24 20 18 16 17 17 17 17 15 15 17 22 21 20 16 20 21 16 19 20 20 20
34 35 37 37 37 38 37 37 36 38 35 35 38 37 36 37 35 35 32 33 32 29 27 28 27 28 28 29 28 28 25 25 23 21 22 23 21 21 18 18 24 22 21 25 22 20 22 26 21 20 21 21 21 22
35 36 35 37 36 35 34 35 37 37 35 37 36 35 37 36 35 34 33 33 31 28 26 26 25 26 28 28 28 25 24 25 27 26 26 24 21 25 19 19 21 22 24 28 29 30 28 29 29 27 24 22 22 23
33 34 34 35 35 35 36 37 37 36 34 35 35 35 37 36 34 33 33 33 32 31 24 20 24 25 28 29 29 29 28 32 33 33 29 27 23 28 22 23 22 23 23 22 23 25 27 27 29 28 27 28 27 26
34 34 35 35 34 35 35 34 34 33 34 35 34 35 37 35 35 32 32 32 32 28 23 24 26 24 24 23 24 27 31 32 31 29 28 25 29 25 24 25 23 24 22 21 19 22 25 25 27 27 27 26 25 24
35 36 34 34 33 34 33 33 33 33 34 34 36 36 34 34 33 31 28 34 33 31 27 22 26 23 24 28 27 31 33 33 34 31 30 30 28 24 22 22 22 24 24 26 25 26 28 28 26 25 24 24 24 24
30 31 34 36 36 34 33 33 33 34 34 34 36 34 34 34 32 29 26 35 38 36 28 23 24 30 33 33 32 32 33 34 33 31 29 26 25 25 24 20 21 23 25 25 26 24 24 24 24 25 26 25 25 25
28 27 29 30 33 36 36 34 33 33 33 34 35 35 35 34 33 31 32 33 37 32 31 22 21 23 32 29 28 33 31 32 31 29 30 26 26 28 25 25 24 25 31 29 25 25 25 26 27 27 27 27 26 26
26 26 28 27 28 30 32 35 34 33 33 34 35 35 34 32 29 29 32 33 35 31 24 25 21 18 32 30 30 33 32 26 30 26 26 26 25 23 25 25 29 31 29 26 27 27 27 27 27 28 27 27 27 26
25 27 28 28 28 28 29 31 34 35 33 33 34 31 28 33 34 34 35 31 31 31 30 24 22 19 30 30 28 30 31 27 24 26 28 26 23 24 33 29 29 27 27 27 26 26 27 27 28 28 28 28 28 27
25 25 24 26 29 29 28 30 33 34 33 32 32 29 29 35 30 29 25 26 24 24 27 26 23 20 22 20 20 23 25 26 21 21 24 24 23 29 32 32 29 29 29 29 29 28 28 27 27 28 28 28 28 27
24 24 25 25 25 28 27 28 31 34 33 34 33 32 29 23 21 22 21 22 22 20 24 23 24 26 28 32 25 30 25 21 18 24 22 20 26 26 27 27 27 27 27 27 27 26 27 26 27 28 27 27 27 28
23 23 25 25 24 24 28 28 30 33 33 31 29 27 24 21 18 19 15 16 16 19 24 26 25 27 30 31 27 24 21 19 23 19 18 24 26 26 26 26 26 27 27 28 27 28 28 28 27 28 27 28 28 28
23 24 26 26 26 28 27 28 29 32 30 25 25 18 20 17 19 16 14 15 22 25 29 31 30 26 27 27 25 22 22 21 15 14 18 25 26 25 25 26 27 27 27 27 28 29 29 29 28 29 28 29 29 28
23 24 26 26 27 33 33 33 31 32 26 25 23 17 17 18 19 21 23 22 24 27 28 26 25 24 22 21 22 20 18 16 17 20 24 25 25 25 26 27 28 28 27 28 29 29 29 28 28 28 30 31 31 30
25 21 22 28 25 27 28 31 33 30 29 25 22 19 18 18 20 23 24 24 28 27 27 26 23 20 19 19 19 17 14 14 21 25 25 24 24 25 28 26 28 28 28 29 29 28 29 29 29 29 29 29 29 30
25 22 23 24 27 24 27 32 29 29 26 22 19 20 20 19 18 20 22 24 27 27 24 23 20 18 18 17 16 22 21 23 25 24 24 24 26 29 26 26 25 27 26 27 31 28 29 29 29 27 27 29 30 29
25 22 22 30 23 25 27 29 26 23 21 23 18 17 19 21 22 23 25 26 25 27 28 25 24 18 18 19 20 23 23 23 24 22 22 23 28 27 25 26 25 27 25 27 30 30 30 28 27 27 28 28 29 28
26 25 25 26 21 21 23 24 24 20 20 19 19 20 21 22 24 24 25 27 26 28 27 25 19 17 18 25 25 23 23 21 21 21 22 28 25 24 22 25 27 27 27 27 29 30 30 30 26 26 28 28 27 28
25 20 20 24 24 22 20 21 24 21 16 16 17 16 18 19 21 22 23 24 27 28 25 23 19 23 23 23 24 23 21 21 20 19 20 21 23 21 22 25 28 29 28 28 29 31 28 27 28 27 28 29 28 27
19 18 17 19 24 25 21 20 18 19 17 15 14 14 15 19 19 21 24 27 26 25 19 21 24 24 23 22 21 21 22 19 19 19 21 20 20 21 23 25 28 30 28 29 28 29 28 27 28 28 28 28 28 29
22 21 20 19 20 19 23 19 19 17 17 18 17 18 18 19 20 22 27 26 25 21 24 25 24 21 20 19 19 20 18 18 19 24 20 19 19 21 23 25 25 23 23 24 25 27 28 28 28 28 28 28 29 28
22 21 19 18 18 16 15 20 15 13 11 12 12 12 13 16 20 26 24 25 23 23 22 21 20 23 20 19 19 19 17 18 21 19 17 18 20 21 22 25 21 19 18 19 23 24 25 29 28 28 28 28 28 28
20 21 18 15 14 12 14 13 16 14 14 13 13 11 11 14 25 22 20 21 22 20 19 18 19 18 18 18 20 16 16 18 22 17 17 17 17 18 22 22 19 17 17 18 19 19 21 23 26 28 27 27 28 27
16 15 14 13 13 11 9 9 10 11 10 13 12 12 16 23 19 19 17 19 18 17 19 17 18 21 20 20 18 15 16 17 18 16 16 15 15 15 15 17 18 15 15 15 14 16 17 19 21 23 28 27 27 27
11 9 11 8 8 4 8 9 9 10 11 10 11 18 23 21 18 16 18 19 19 21 17 17 19 19 20 21 19 17 15 15 19 16 15 15 13 13 13 12 12 12 13 16 16 15 16 18 19 19 22 27 26 28
9 12 7 7 8 9 10 10 10 13 10 8 9 16 17 14 14 15 20 22 21 21 19 19 22 22 16 16 16 15 15 15 15 15 17 14 13 12 12 11 11 12 13 15 16 16 16 17 17 18 19 22 28 28
11 4 3 8 7 5 8 15 15 14 11 18 20 16 15 14 13 19 20 19 18 16 14 14 15 15 14 14 14 14 14 14 16 15 18 17 13 11 11 11 11 12 12 13 14 15 17 18 17 18 19 21 26 29
11 8 5 3 12 12 12 18 12 17 14 14 15 16 14 16 19 19 17 16 15 13 12 12 12 13 13 13 12 12 11 10 10 7 7 10 7 9 11 10 10 11 11 12 12 13 17 16 18 19 21 23 24 29
8 13 12 15 16 14 18 20 18 16 17 15 12 12 13 14 18 21 17 16 15 14 14 14 14 15 14 12 10 9 9 7 7 8 7 7 8 10 8 8 10 9 11 10 11 13 14 13 14 16 17 19 27 28
10 12 11 18 17 18 19 19 17 16 16 16 19 16 12 13 16 19 17 19 19 16 14 14 12 11 11 12 12 9 7 7 6 5 6 8 8 6 5 8 7 7 8 9 11 13 11 10 10 11 11 12 15 23
14 18 15 12 12 16 17 16 16 15 14 15 14 13 13 11 10 14 21 18 15 13 13 12 13 11 10 9 8 9 9 8 6 4 3 3 3 2 5 5 4 4 6 8 10 9 8 7 6 6 7 8 9 13
18 18 13 11 11 12 15 17 15 14 13 15 12 12 12 12 11 15 17 18 16 16 15 15 13 11 11 10 9 8 6 4 3 4 3 2 2 2 3 1 0 3 6 8 8 6 4 5 3 3 4 5 6 8

GFSWCAN_sfc_30mbdewp_246.txt.gz
Dewpoint
34 33 32 36 37 38 38 39 39 39 37 37 38 37 38 37 37 37 33 35 33 27 25 25 24 23 23 23 20 20 22 21 22 20 17 17 17 21 19 18 16 14 12 18 20 18 14 23 25 21 22 22 21 20
33 33 35 37 38 37 37 37 37 36 37 37 36 37 39 37 37 37 32 34 35 31 27 29 28 28 27 28 28 29 24 25 23 18 18 20 17 18 19 15 22 19 24 23 20 19 29 32 31 31 31 26 23 22
32 34 35 35 36 36 35 35 35 36 38 36 36 37 35 36 38 36 33 32 31 27 25 25 24 25 27 28 27 22 23 26 26 27 26 23 19 22 19 19 20 22 28 26 26 26 28 27 30 33 31 29 27 27
34 33 32 32 35 36 35 36 37 37 37 35 34 36 35 36 37 35 32 32 32 30 23 20 25 25 28 28 28 28 26 26 27 29 26 24 23 27 23 23 22 22 20 19 21 22 25 27 30 30 31 30 27 27
35 36 35 34 34 34 34 34 34 33 33 33 35 35 35 36 37 35 34 32 33 27 20 22 23 21 21 22 23 28 29 28 28 27 26 24 26 25 24 24 22 23 21 21 20 22 24 24 26 30 27 25 25 25
31 32 34 36 36 35 34 33 33 33 32 34 34 36 37 35 35 30 25 35 34 32 25 19 24 24 24 25 24 24 25 29 31 30 28 31 31 28 24 21 19 19 21 24 25 25 26 28 28 27 27 27 28 26
28 29 29 31 33 35 36 36 34 34 32 34 35 36 35 34 34 28 22 32 37 33 27 22 18 23 32 31 31 32 33 32 31 31 29 28 27 29 25 20 20 20 21 21 22 27 25 26 25 28 28 27 27 27
27 28 27 28 29 31 32 34 36 34 33 33 34 35 36 36 34 33 33 33 35 32 29 21 19 21 30 28 27 31 30 31 31 29 29 27 26 26 22 22 24 26 31 29 28 28 27 28 28 28 29 29 28 28
29 26 27 29 28 28 29 30 31 34 35 33 34 35 35 33 27 27 31 33 35 27 23 22 18 11 30 29 29 31 31 26 29 26 26 26 23 23 24 28 30 33 32 30 28 29 28 28 28 28 28 27 27 27
28 26 26 26 27 30 30 29 30 33 36 34 33 31 27 32 34 35 35 32 30 31 29 22 23 19 27 26 23 24 29 24 23 24 27 25 23 27 32 32 31 29 28 28 27 26 27 27 26 27 27 27 28 27
28 26 26 25 25 26 29 28 28 31 34 32 30 29 31 33 32 29 25 25 25 23 27 24 22 19 22 18 17 21 19 25 21 21 23 23 24 28 31 31 31 31 28 27 27 27 26 26 25 26 26 27 27 27
30 25 24 24 26 25 25 28 29 31 32 34 33 34 32 26 23 21 20 22 24 20 24 23 24 24 23 27 22 23 21 25 19 25 24 20 25 27 26 26 27 27 27 27 26 26 28 27 27 27 27 27 27 27
30 25 24 24 26 27 30 26 27 29 32 32 29 26 25 21 17 17 13 18 18 20 25 29 27 31 32 33 29 27 23 21 24 19 18 23 26 26 26 26 26 26 27 27 26 27 28 29 29 28 28 28 28 27
29 26 24 25 27 28 32 34 28 29 32 27 25 19 19 16 18 16 18 17 18 25 26 29 27 29 30 28 27 22 22 22 17 15 18 24 26 25 25 27 26 26 27 27 27 27 28 29 27 27 28 28 29 29
26 28 25 24 25 28 29 31 33 31 28 24 24 17 18 20 20 22 21 22 24 28 26 25 26 26 23 21 23 21 18 16 17 16 22 26 25 26 27 27 28 27 27 28 28 28 28 28 28 27 28 28 28 27
24 30 27 23 30 28 26 31 34 33 28 25 24 21 20 18 16 18 23 20 23 26 27 25 22 21 20 20 19 18 16 12 18 24 25 25 24 28 27 25 26 26 27 28 27 28 28 28 27 27 26 26 27 28
25 30 23 29 29 26 24 30 31 28 25 22 20 23 20 19 18 18 18 18 25 25 21 23 21 17 20 18 17 21 18 22 24 25 25 24 26 29 26 24 24 24 26 25 26 28 29 27 27 25 25 26 27 27
28 29 25 30 28 25 27 28 25 25 21 23 20 19 20 21 19 19 21 23 24 23 23 21 26 22 17 14 20 23 24 25 25 22 21 24 27 25 22 22 26 26 28 25 25 29 29 29 27 25 26 27 27 26
32 32 28 30 27 20 18 22 24 19 19 20 22 21 20 18 19 17 19 22 24 26 29 27 22 20 19 23 23 23 24 23 21 20 22 24 24 20 20 22 25 27 29 27 28 29 30 28 28 28 26 27 26 26
32 33 28 23 24 18 18 19 24 21 16 14 16 16 18 18 19 20 20 22 23 23 25 24 22 20 22 23 24 23 22 21 19 18 18 19 21 18 20 23 24 27 29 29 27 27 29 25 25 28 27 27 26 26
32 26 21 21 23 23 20 19 19 19 19 12 11 17 17 20 19 18 20 23 23 21 23 25 22 23 23 22 22 22 20 19 19 18 19 20 17 19 21 23 26 23 23 22 22 22 24 26 26 28 28 27 28 28
24 21 21 20 21 22 22 21 16 17 14 16 16 17 16 16 16 17 22 22 23 23 23 23 22 22 21 20 21 21 19 18 19 23 19 18 16 19 20 22 19 17 17 19 20 20 21 22 24 27 28 28 28 28
24 22 20 19 18 17 12 19 15 12 8 6 10 10 11 14 17 25 17 25 24 22 23 23 22 21 19 20 20 18 17 18 20 17 16 16 18 19 21 20 18 15 14 16 18 18 18 19 20 21 26 28 28 27
23 20 18 15 15 10 13 11 19 15 13 12 11 9 9 8 19 19 16 20 20 21 20 20 21 20 19 19 18 16 16 19 17 16 15 14 14 16 19 17 15 14 14 16 15 15 16 17 18 19 20 24 27 27
16 15 13 10 15 12 7 4 6 5 7 11 13 16 16 23 17 17 16 18 19 18 18 18 18 18 16 17 18 15 15 18 16 14 14 12 12 11 11 12 14 12 13 13 12 13 14 15 16 17 17 19 22 26
10 10 11 8 8 7 5 8 8 4 3 6 9 12 18 15 14 13 16 18 17 17 15 15 17 19 20 19 16 14 14 17 17 14 14 11 10 10 9 8 8 8 12 12 13 12 12 14 15 16 16 17 19 22
8 5 13 14 8 9 6 8 8 4 6 12 9 13 12 12 12 14 19 20 19 18 19 21 20 17 17 17 15 15 15 16 15 15 13 11 11 10 9 8 7 10 11 11 11 11 12 12 14 15 15 16 17 20
8 11 3 5 9 7 3 3 7 11 15 20 19 13 10 11 11 16 18 17 15 16 16 16 16 16 15 14 13 12 11 11 15 16 14 12 11 10 9 8 9 10 9 9 9 10 12 13 14 14 15 16 18 20
6 9 7 3 4 3 4 5 8 13 18 17 13 14 14 16 17 17 17 14 14 14 13 13 13 13 11 10 8 7 8 9 13 9 9 8 6 7 6 6 7 5 6 7 8 11 14 13 11 13 14 16 18 22
9 12 8 6 4 2 4 15 18 18 17 13 13 12 13 14 17 17 14 12 11 11 12 12 12 9 7 6 4 3 4 4 5 5 5 5 5 5 3 5 4 3 4 5 7 9 8 6 6 6 8 11 13 14
9 10 9 9 9 15 17 17 15 14 14 16 11 10 10 12 16 18 14 14 15 15 14 14 14 12 11 7 5 4 4 5 3 4 4 3 1 1 3 3 0 1 3 5 6 5 4 3 3 3 4 6 8 10
10 9 9 12 11 16 17 15 13 12 13 13 11 11 10 9 10 14 19 17 16 14 13 11 11 11 9 8 6 5 5 5 2 0 -0 -1 -0 1 0 -1 -1 1 4 5 2 1 1 1 0 1 1 3 5 7
17 14 13 11 10 10 12 14 14 13 10 12 11 9 9 7 7 13 18 17 15 13 12 11 9 7 7 6 6 4 2 1 1 3 1 1 2 2 -3 -3 -1 1 2 1 0 -1 -1 -1 -2 -1 -1 -0 2 4

GFSWCAN_sfc_30mbdewp_252.txt.gz
Dewpoint
34 32 32 32 32 32 35 35 36 37 39 39 39 38 38 38 39 38 36 38 34 29 26 25 25 24 26 25 19 19 17 19 19 17 15 15 17 18 13 14 15 17 17 16 18 15 10 28 20 22 26 32 33 34
33 29 32 32 33 35 35 36 36 36 37 37 37 38 38 37 37 37 35 36 38 32 28 29 30 28 26 25 23 25 17 23 23 20 17 18 14 14 14 12 18 18 22 21 23 18 19 21 24 26 31 31 33 32
35 35 33 32 32 33 34 35 35 35 35 35 35 35 36 37 37 38 36 34 34 30 27 24 24 25 29 29 28 23 24 23 23 24 22 20 18 19 15 17 18 19 26 24 22 21 22 21 22 27 29 30 31 32
32 34 35 35 34 32 33 34 33 34 34 34 36 36 35 34 34 35 34 34 34 29 22 20 23 23 25 26 28 27 25 24 24 22 19 19 19 21 18 17 19 20 20 18 19 19 20 24 27 24 25 29 28 28
29 32 33 33 35 35 34 33 33 32 33 32 31 30 30 34 35 35 37 35 36 30 21 20 25 23 23 25 25 27 26 25 23 22 22 20 21 19 21 22 20 21 20 19 16 18 20 22 24 28 28 28 29 28
29 28 30 30 31 32 34 35 35 34 33 32 32 31 33 35 36 33 25 28 36 34 27 17 19 21 24 23 22 22 25 26 27 24 23 24 25 24 22 21 20 21 22 23 21 23 24 25 25 29 28 28 28 28
29 29 28 29 28 30 31 32 33 35 36 35 33 33 34 36 33 26 21 25 37 35 25 18 18 21 23 28 25 24 27 26 26 25 24 24 27 29 25 19 19 21 22 22 26 29 24 27 28 29 28 28 28 28
32 30 29 29 28 30 30 30 30 31 33 36 36 33 35 36 37 34 34 37 35 31 28 18 17 18 24 26 28 29 24 25 27 25 27 26 26 26 22 22 22 24 32 31 31 31 29 30 29 27 27 27 27 27
27 30 32 29 28 28 27 30 31 31 30 33 36 34 34 33 31 30 34 37 35 27 19 21 17 9 22 28 29 30 30 23 29 24 25 26 24 21 22 22 27 31 31 30 28 29 32 29 27 26 26 26 26 26
29 28 30 30 28 28 26 27 29 31 29 31 35 30 26 29 33 36 34 29 29 29 27 19 21 15 20 17 14 23 26 23 21 22 26 23 21 22 24 29 31 31 31 31 26 25 25 25 25 25 25 25 25 27
25 29 28 32 28 27 25 27 27 29 31 33 29 27 30 35 34 31 26 24 23 21 22 20 20 16 21 16 18 24 16 21 18 20 21 20 20 24 30 32 32 31 30 27 27 26 26 27 27 27 27 27 27 26
26 29 28 31 29 26 25 28 28 28 30 33 33 34 34 30 28 23 20 22 22 17 22 23 23 20 23 25 23 24 19 22 17 24 22 19 22 29 29 29 29 27 27 26 25 25 25 26 26 27 27 26 26 27
24 29 27 29 31 27 26 28 31 32 33 31 30 27 25 24 18 16 12 17 20 23 24 24 26 27 27 28 25 23 19 18 25 22 18 19 24 28 27 26 26 27 25 24 25 25 25 25 26 27 27 27 28 26
25 28 26 26 29 29 27 27 27 35 30 25 23 17 18 16 18 16 15 16 20 27 28 30 27 26 28 25 24 23 24 24 19 17 16 18 25 26 26 26 26 26 25 25 24 24 24 24 24 26 27 27 27 25
26 27 26 25 26 29 29 26 32 35 28 23 23 15 17 19 20 21 22 21 20 25 26 25 26 26 24 23 25 22 20 17 18 13 16 23 26 25 26 26 26 25 24 24 25 25 24 24 24 24 25 26 25 25
24 25 24 24 25 27 29 30 32 32 28 26 23 20 20 21 20 21 21 21 23 23 25 25 21 21 20 20 18 17 17 13 13 22 24 25 25 26 27 26 26 26 24 24 24 24 23 23 25 28 28 26 25 25
24 23 25 28 30 31 28 29 28 26 24 21 20 22 20 20 20 18 22 21 23 23 18 21 18 16 19 18 16 19 17 15 21 24 25 25 25 27 27 26 24 22 23 24 25 27 27 26 28 28 23 24 27 27
24 24 25 25 28 32 30 29 24 20 18 22 20 19 22 23 19 21 23 22 22 22 18 14 17 15 13 14 12 17 22 24 25 25 25 26 27 27 24 21 21 21 23 23 25 27 28 27 26 26 25 25 27 27
25 25 26 25 29 28 23 24 24 17 15 19 21 22 21 21 22 21 22 23 24 21 17 19 16 16 14 16 15 17 23 25 24 25 25 25 26 22 19 20 20 22 23 24 26 24 22 22 25 24 24 26 26 26
22 22 22 22 29 25 20 18 23 20 17 16 20 17 17 17 17 19 20 21 21 20 19 17 14 14 18 20 22 22 23 24 24 22 21 22 20 19 18 19 21 23 22 21 19 21 18 18 20 21 21 21 23 25
22 22 22 25 28 25 21 17 18 20 19 16 17 19 18 20 18 18 18 20 20 19 17 19 18 18 19 19 21 23 24 24 23 22 20 18 19 18 18 20 22 17 16 15 16 15 15 16 18 19 18 18 20 21
21 22 22 26 24 24 21 21 17 17 13 9 7 6 4 7 11 13 15 15 17 17 19 17 17 19 20 20 21 23 23 23 21 20 20 19 17 16 17 18 16 13 13 13 14 14 14 15 16 16 16 17 18 18
23 24 24 24 19 18 14 20 16 14 7 8 9 4 4 6 7 13 10 12 10 16 18 19 20 22 22 22 23 22 21 22 20 18 17 17 18 19 18 16 14 11 11 11 13 14 12 12 12 13 14 15 16 15
27 23 18 17 15 10 14 15 17 11 10 8 8 8 8 9 14 10 8 6 9 14 18 19 22 21 22 22 21 20 19 18 17 16 15 15 14 15 16 14 12 12 12 13 11 10 9 8 9 10 11 12 12 13
16 16 17 12 16 11 9 7 7 6 1 2 -1 -2 -0 3 -0 1 1 0 5 12 16 20 22 21 20 19 18 18 15 16 15 14 12 12 12 12 12 12 11 11 11 8 7 7 6 7 7 8 9 9 10 11
10 11 12 10 10 9 7 3 1 -1 -1 -1 1 4 10 8 5 1 6 7 12 15 16 19 19 19 19 19 17 16 16 14 14 13 11 10 9 8 7 4 3 3 8 7 6 6 6 7 7 7 7 8 8 9
9 9 14 12 10 10 7 5 5 2 2 5 6 4 4 8 8 6 13 17 18 18 16 18 21 21 18 16 15 15 16 15 15 13 11 9 7 6 5 5 5 5 7 4 4 4 5 5 5 6 6 6 6 7
13 13 8 10 10 9 1 3 3 5 7 9 5 2 9 10 11 13 14 14 15 16 15 15 15 16 15 14 14 14 13 12 12 11 10 8 6 5 5 5 5 4 0 1 3 3 4 5 5 5 4 4 5 5
12 14 8 9 7 7 7 7 6 8 7 6 4 4 6 12 16 17 17 15 14 14 14 14 11 10 10 9 8 9 12 12 11 10 9 8 6 7 3 2 -0 -3 -1 1 3 4 5 7 5 3 3 2 2 2
7 9 5 1 3 0 1 6 4 5 11 13 14 14 14 14 15 13 13 14 14 14 11 10 9 9 10 10 7 6 4 5 8 9 9 9 7 3 1 -0 -2 -2 -2 -1 -0 -1 -1 -2 -3 -3 -2 -1 -1 -0
7 7 3 2 -0 0 1 3 6 11 14 15 12 14 13 11 10 13 12 11 9 9 10 10 9 6 6 3 1 -2 -2 3 2 3 3 2 1 -0 -2 -3 -3 -4 -3 -3 -3 -3 -3 -3 -4 -4 -2 -2 -2 -2
4 2 2 1 1 3 13 13 13 14 12 12 11 7 8 9 10 10 12 9 9 10 9 9 9 8 4 2 2 2 4 3 2 0 -0 -0 -1 -3 -5 -5 -6 -5 -3 -4 -5 -5 -4 -4 -4 -5 -4 -3 -3 -3
3 3 2 2 3 5 10 12 11 11 8 9 9 8 8 9 9 6 11 11 11 10 9 9 8 7 6 6 5 2 -1 -1 -1 0 -0 -2 -4 -5 -7 -8 -8 -7 -5 -6 -7 -7 -5 -5 -5 -6 -6 -5 -4 -4

GFSWCAN_sfc_30mbdewp_255.txt.gz
Dewpoint
34 32 32 33 33 33 33 35 35 36 37 38 38 39 39 38 38 38 37 39 35 30 28 26 25 23 24 25 20 20 19 19 19 16 15 15 16 17 11 9 10 13 16 16 16 14 11 23 18 15 20 27 29 33
33 30 32 33 34 34 36 36 36 35 36 37 37 37 37 38 38 38 35 37 38 32 29 29 28 28 27 25 24 26 19 20 23 20 18 18 16 15 13 11 15 16 19 17 22 19 22 25 24 22 26 26 25 31
35 36 35 33 32 33 34 35 35 35 35 35 35 34 35 37 36 36 36 36 35 30 28 28 27 29 32 31 28 24 25 23 22 25 21 21 17 19 13 14 15 15 19 19 21 22 19 21 21 24 25 24 29 33
32 34 34 36 35 33 33 33 33 33 33 34 33 35 36 36 34 36 36 36 35 30 23 21 24 23 24 29 30 28 25 26 25 25 22 20 16 19 15 15 15 15 16 17 18 19 20 22 23 22 24 29 29 28
29 30 32 32 33 35 35 35 34 33 32 32 32 31 31 31 32 35 36 36 35 29 23 23 24 25 25 25 26 29 28 25 24 23 22 19 20 17 17 17 16 17 18 18 16 18 20 21 22 24 25 26 28 27
30 29 29 30 30 32 33 34 35 35 35 34 32 31 31 33 35 35 29 29 37 36 27 19 21 21 23 24 25 27 27 26 24 23 21 21 20 22 19 16 17 20 22 22 20 22 24 27 27 29 28 28 27 27
32 30 29 29 28 28 30 31 32 33 35 36 35 33 32 33 34 29 24 24 36 36 26 19 17 21 23 27 25 25 26 26 25 24 23 21 24 27 23 17 16 20 20 20 24 30 28 29 28 29 28 27 27 27
28 31 31 30 29 29 30 30 30 31 32 33 35 36 34 35 36 33 35 36 36 31 28 19 17 19 24 27 26 26 24 26 26 24 25 24 24 24 19 17 18 21 24 29 32 31 31 33 32 29 29 26 26 26
27 28 28 32 31 28 28 27 29 32 31 31 35 36 34 34 31 31 37 37 35 29 20 20 16 8 21 27 29 29 26 19 24 22 24 25 22 20 19 20 22 25 30 31 30 31 30 26 26 26 26 25 25 25
28 29 29 29 31 29 28 27 27 30 32 30 34 30 26 29 35 36 34 30 28 29 26 20 20 16 20 19 17 24 25 23 19 22 25 24 19 20 21 24 25 30 30 30 27 25 25 25 26 26 25 25 26 25
24 25 29 30 31 30 28 26 28 27 32 31 28 27 30 35 33 28 24 24 25 21 23 22 19 16 20 15 15 23 19 21 17 19 22 20 19 21 26 27 31 32 30 27 27 26 25 26 26 26 26 26 26 26
24 26 27 30 31 33 27 26 29 28 29 32 32 34 33 30 27 23 21 23 20 16 22 21 21 20 21 25 22 24 20 21 15 24 21 18 22 29 30 30 30 29 27 25 25 25 25 25 26 26 27 26 27 27
23 24 27 29 29 32 30 27 28 32 32 31 29 27 25 23 18 17 13 17 19 22 24 25 23 24 26 27 23 23 19 17 24 21 18 19 23 28 29 28 27 27 26 24 24 24 24 25 25 25 25 27 28 27
23 27 29 28 26 30 30 30 28 33 32 25 21 17 18 15 17 17 15 15 21 27 26 27 27 26 27 23 23 21 21 25 19 17 16 20 23 28 27 27 26 26 25 25 23 23 24 24 23 24 24 25 25 25
22 23 26 27 25 25 27 29 29 33 29 23 23 15 17 18 19 21 22 21 21 25 26 26 26 26 25 23 24 23 20 17 19 15 18 23 26 27 26 27 26 25 24 24 24 24 23 23 23 24 26 28 26 26
25 25 24 24 26 29 30 30 33 32 27 24 23 19 20 21 20 22 22 22 24 25 27 27 23 21 21 21 19 18 16 14 14 20 24 25 26 26 26 27 27 27 26 25 25 25 26 26 25 24 28 27 24 25
26 24 25 25 26 29 32 31 29 25 24 22 20 23 18 19 19 20 23 23 28 25 21 23 19 17 19 17 15 18 16 16 19 24 25 26 25 26 28 27 25 24 23 23 23 24 25 27 28 27 26 25 24 26
25 27 26 25 25 31 30 30 26 23 19 19 20 22 23 23 21 21 23 23 22 21 21 19 17 12 12 11 11 16 20 23 25 25 25 26 26 27 28 25 23 22 22 23 23 24 25 24 23 24 24 24 25 26
22 24 26 26 26 26 23 25 26 17 16 17 19 21 19 19 21 22 21 23 24 24 24 20 15 11 9 9 9 12 17 22 24 25 26 27 27 26 23 21 20 21 22 23 23 23 23 21 21 22 22 22 22 23
19 20 22 23 26 25 21 21 25 20 16 15 17 12 13 14 16 18 20 22 23 20 17 16 13 14 15 19 20 21 22 22 23 23 23 23 23 21 20 20 20 22 22 20 18 19 18 17 18 18 19 19 19 20
20 23 23 24 25 24 22 21 19 19 19 17 16 16 17 21 17 12 15 21 20 18 16 17 17 17 19 19 19 18 19 21 21 22 22 22 21 21 19 20 22 19 17 16 16 15 14 15 15 16 17 17 17 19
21 21 22 22 19 18 21 22 19 19 17 15 10 8 4 3 3 7 10 15 18 18 18 17 18 19 19 19 20 21 21 22 24 23 20 19 20 20 19 19 18 16 15 14 14 14 14 13 13 13 14 15 15 16
23 22 23 20 17 14 16 21 16 14 8 7 12 5 5 7 9 16 8 12 10 10 12 16 19 20 21 21 21 22 22 23 23 21 21 21 20 19 18 17 16 14 13 12 13 13 12 10 11 11 12 12 12 13
24 22 17 14 15 12 18 14 17 11 12 9 6 5 6 6 11 8 1 4 12 12 12 13 18 21 22 22 22 21 21 23 22 20 19 18 17 17 17 16 14 13 12 12 10 10 9 8 8 9 10 9 9 10
15 13 15 12 16 10 9 10 12 11 8 9 6 0 -3 3 1 -1 -5 -1 4 8 10 10 14 19 19 18 18 20 19 20 19 18 15 15 14 15 14 14 13 11 11 9 7 7 6 7 8 8 8 8 7 8
10 8 11 11 10 8 8 4 3 1 0 -2 -2 1 8 6 4 4 3 12 15 13 14 15 18 19 20 20 19 19 19 18 17 15 13 12 13 12 11 9 6 6 9 8 6 5 6 7 7 6 5 6 6 6
8 6 14 14 11 11 7 6 5 2 -0 -1 5 5 4 2 4 7 13 15 18 18 16 16 17 20 21 19 16 16 16 15 15 14 12 10 9 9 8 7 7 7 8 6 4 5 6 6 5 4 5 6 6 6
10 13 8 10 12 12 5 3 1 -0 -2 4 7 4 1 5 9 12 11 17 16 16 15 14 14 15 15 14 15 14 13 11 10 10 9 8 7 7 7 7 6 6 1 1 3 3 4 4 4 5 5 4 4 4
10 13 12 8 11 11 7 2 1 5 8 9 4 4 8 8 7 10 16 17 16 16 15 14 12 11 11 10 10 12 12 12 12 10 10 9 8 8 5 4 3 -1 -1 2 4 4 5 6 6 4 3 2 1 2
7 11 7 4 5 5 7 8 5 6 10 10 9 9 10 11 12 14 15 16 16 16 14 11 10 11 11 12 10 9 7 8 9 10 10 9 9 5 4 2 -0 0 0 2 1 0 0 -0 -1 -1 -1 0 1 1
9 9 6 4 3 4 5 2 3 5 8 8 11 11 11 11 11 11 13 13 13 11 11 11 9 8 10 10 10 9 7 4 3 4 5 4 3 1 -0 -1 -1 -3 -1 -1 -1 -1 -1 -1 -2 -2 -1 -1 -1 -1
7 7 6 4 2 1 6 3 4 6 7 10 10 7 8 9 9 10 9 9 10 12 11 10 11 11 5 2 0 2 3 3 3 2 1 0 -0 -2 -3 -4 -5 -3 -2 -3 -3 -3 -3 -3 -3 -3 -3 -2 -2 -2
2 2 4 3 3 2 5 8 6 7 7 7 7 8 8 9 10 9 8 8 10 12 11 9 8 5 3 4 4 3 2 1 1 2 -1 -3 -5 -5 -6 -6 -6 -5 -4 -4 -4 -4 -4 -4 -4 -4 -4 -4 -3 -3

GFSWCAN_sfc_30mbdewp_258.txt.gz
Dewpoint
34 33 33 34 34 34 33 33 35 36 35 35 37 37 39 39 39 39 36 38 34 31 28 27 24 23 23 22 20 23 20 22 21 17 14 13 13 13 13 8 6 9 15 18 18 14 10 21 20 18 20 21 24 23
33 31 31 33 33 33 33 36 36 37 35 37 38 39 40 39 37 38 35 39 38 33 31 31 29 28 26 23 23 29 19 17 21 20 20 19 16 16 12 9 12 13 17 14 15 14 18 19 19 18 21 23 22 27
35 36 35 33 32 34 34 35 35 35 35 35 35 37 36 37 36 37 34 36 36 31 30 30 29 30 30 29 28 25 23 22 20 20 20 19 17 14 12 10 12 13 14 16 17 15 16 17 19 23 22 20 22 26
33 34 34 36 35 34 33 33 33 34 34 35 34 35 36 36 36 36 35 38 35 32 25 23 26 26 26 28 30 28 24 24 24 24 22 20 16 14 13 12 13 14 14 14 15 16 18 18 20 22 24 25 25 25
30 31 32 32 33 35 35 35 34 33 33 33 33 34 36 36 35 34 36 37 38 29 24 23 24 24 25 26 27 28 27 24 25 23 21 19 16 15 15 15 15 15 14 14 15 15 18 19 22 26 27 27 28 28
30 29 29 30 30 31 33 34 35 36 35 34 33 32 32 32 34 36 30 31 36 34 28 20 23 21 23 24 24 25 26 27 28 24 20 20 18 22 18 15 15 15 17 18 17 19 21 24 27 29 29 29 29 29
33 31 30 29 28 28 30 31 32 32 33 36 36 34 33 33 35 31 26 28 37 36 28 21 18 21 25 27 27 26 26 29 26 24 21 19 20 22 20 16 15 14 16 18 20 20 23 29 28 31 31 30 29 28
28 29 32 30 30 29 31 30 30 31 32 32 33 35 35 34 35 34 32 36 35 31 29 20 17 18 23 25 24 27 25 26 25 22 23 20 22 24 18 14 15 16 17 19 22 29 30 34 32 30 28 26 25 25
27 27 29 29 33 30 29 28 28 29 33 31 32 36 34 34 32 31 37 36 36 33 24 21 15 15 22 24 29 28 27 22 24 22 21 22 20 20 16 15 16 17 20 22 28 30 31 29 27 26 25 25 25 26
27 27 28 30 30 32 29 28 27 27 32 31 32 30 28 29 35 36 35 30 29 29 29 20 16 16 19 22 24 26 27 21 21 20 21 23 18 17 17 17 17 19 22 28 28 26 27 25 25 26 25 25 26 26
25 25 26 28 31 30 30 29 27 28 31 28 26 25 30 35 33 28 23 23 23 21 23 20 17 14 17 14 14 19 19 21 18 17 20 18 16 19 27 27 27 26 27 29 27 26 25 25 25 25 25 25 25 25
24 24 25 28 30 32 31 28 27 28 27 30 30 32 34 30 27 21 18 19 19 14 19 19 20 19 19 20 16 20 18 21 15 23 20 15 16 25 29 31 31 30 29 27 26 25 25 24 25 25 25 25 25 26
24 24 26 28 30 30 32 30 27 31 32 30 28 26 26 22 18 16 15 17 16 19 23 24 24 24 24 23 24 24 20 18 21 21 15 14 20 26 29 30 29 28 27 26 24 24 24 24 25 25 25 25 25 25
23 24 27 29 29 28 31 30 30 33 32 24 19 15 16 15 15 10 9 12 17 23 25 25 24 25 26 24 24 21 19 20 17 13 12 20 24 27 29 29 27 27 27 26 25 23 24 25 24 24 26 27 28 27
24 23 23 25 26 25 25 29 30 33 26 22 18 11 11 13 18 20 22 20 19 24 23 25 25 27 26 25 23 20 19 15 15 13 18 25 27 29 29 28 29 29 28 27 28 27 27 27 27 28 28 28 31 28
26 26 23 25 25 27 29 29 33 32 28 23 22 15 17 19 18 22 21 19 22 23 25 24 18 19 20 22 20 16 9 7 10 19 23 25 26 28 28 28 29 29 29 29 27 27 28 27 27 29 30 30 29 27
26 23 26 27 27 27 31 31 30 26 21 21 17 19 17 17 15 16 21 25 22 20 21 20 20 14 18 13 8 10 11 15 23 24 24 24 27 27 28 28 29 28 27 27 26 26 26 28 27 25 25 27 28 28
19 22 25 25 26 28 28 28 25 24 18 14 14 18 21 21 19 18 18 22 23 20 19 20 20 12 15 14 8 14 22 24 21 24 26 27 27 28 28 28 28 27 25 25 25 25 26 24 22 22 24 25 24 25
20 21 23 24 25 24 21 22 25 18 15 15 15 15 16 15 16 15 14 17 18 21 23 21 18 13 10 11 11 14 17 17 18 22 25 28 29 29 29 28 26 25 25 25 24 23 23 24 23 23 22 22 22 22
22 20 20 21 23 25 21 18 23 17 11 11 14 12 10 10 11 15 16 16 14 14 17 16 13 13 15 16 19 20 22 22 24 21 21 23 28 29 28 27 26 25 24 24 23 21 21 21 21 20 19 19 20 21
21 19 20 22 23 25 21 17 17 15 12 10 9 9 10 14 13 14 15 9 9 12 12 15 17 18 20 20 21 21 21 20 19 18 19 22 25 27 26 25 24 23 22 21 21 20 19 19 19 18 19 19 20 20
19 19 19 20 20 19 16 12 10 11 12 8 8 9 8 10 9 7 6 4 6 8 16 18 19 20 20 21 23 23 23 22 22 23 24 24 24 25 25 25 24 23 21 20 18 18 19 17 16 16 17 18 17 17
22 21 19 18 17 15 9 7 10 8 10 9 6 5 5 5 5 6 5 4 5 13 15 13 15 17 19 21 21 22 24 24 23 24 26 25 25 25 26 25 23 21 19 18 16 15 15 14 12 12 13 14 14 14
23 20 16 15 13 8 12 12 12 10 10 9 6 7 2 3 4 3 1 3 9 7 8 12 14 16 18 20 21 22 24 24 24 26 25 24 23 22 23 22 18 17 15 15 13 12 11 12 11 11 12 12 12 11
14 11 12 10 11 11 10 9 6 5 9 8 3 4 5 7 1 -2 -2 -0 13 18 19 20 19 19 17 16 17 21 24 24 24 24 24 23 22 21 19 17 16 15 14 13 12 10 10 10 11 11 10 9 9 9
8 6 9 7 9 10 9 5 9 6 2 3 3 3 5 2 -1 -4 2 14 13 16 18 19 20 20 20 21 21 22 23 24 24 23 21 21 20 19 18 17 15 14 12 12 11 9 8 8 9 8 8 8 9 10
5 6 10 12 8 10 11 10 5 4 5 4 1 4 4 1 -4 -2 13 17 16 18 21 20 20 20 20 21 21 21 22 22 22 22 20 18 17 16 16 15 12 13 12 10 8 8 8 8 8 7 8 10 11 11
8 1 8 9 9 8 7 5 6 3 2 1 3 1 2 2 -4 4 14 15 20 20 19 19 17 18 20 20 19 17 17 16 15 14 14 13 13 13 13 13 12 8 8 6 7 9 9 8 7 8 9 9 9 10
5 4 2 6 9 7 10 9 5 5 4 2 4 2 1 2 8 12 10 16 20 19 19 20 19 17 17 16 17 18 18 18 17 15 14 14 14 14 12 12 10 8 6 7 8 8 8 7 9 9 8 8 9 9
6 6 5 6 6 4 4 10 7 10 10 9 8 6 6 9 12 19 18 18 18 18 20 21 20 18 18 18 16 15 15 16 16 16 15 14 14 13 12 11 8 6 7 8 7 6 6 7 7 8 8 8 9 8
4 7 6 7 6 8 10 9 13 11 11 10 12 9 7 10 13 16 16 17 19 20 18 17 17 17 17 17 17 16 15 14 9 10 12 12 11 10 7 5 5 6 6 6 5 5 5 7 7 6 6 5 5 5
11 7 6 4 6 9 9 9 8 8 8 10 8 11 12 11 6 8 15 16 16 16 17 19 18 17 17 17 13 10 9 10 8 7 6 6 5 4 4 3 3 4 4 4 4 4 4 4 5 4 5 4 4 4
9 9 10 12 11 10 11 10 9 6 6 7 7 8 8 8 5 9 13 14 16 17 18 18 17 15 11 9 11 9 7 6 5 3 2 1 0 1 2 2 2 2 2 3 3 3 2 2 3 2 2 2 2 2